Wetterdaten: Freitag, 21.06.2013
Datum Zeit Temp. Aussen +5cm Feuchte Auss Luftdruck Regen Sonnenschein Regendauer UV Solar Windben
21.06.2013 00:00 18,9 C 16,2 C 92 % 1010,9 hPa 0,0 l/m 0 min 2 min 0,0 UV-I 0 W/m 7,7 km/h (2 Bft)
21.06.2013 00:02 18,8 C 16,2 C 92 % 1010,9 hPa 0,0 l/m 0 min 2 min 0,0 UV-I 0 W/m 10,3 km/h (2 Bft)
21.06.2013 00:05 18,7 C 16,2 C 92 % 1010,9 hPa 0,2 l/m 0 min 2 min 0,0 UV-I 0 W/m 10,3 km/h (2 Bft)
21.06.2013 00:06 18,7 C 16,2 C 92 % 1010,9 hPa 0,0 l/m 0 min 1 min 0,0 UV-I 0 W/m 10,3 km/h (2 Bft)
21.06.2013 00:08 18,6 C 16,2 C 92 % 1010,9 hPa 0,0 l/m 0 min 2 min 0,0 UV-I 0 W/m 10,3 km/h (2 Bft)
21.06.2013 00:10 18,4 C 15,7 C 92 % 1010,8 hPa 0,2 l/m 0 min 2 min 0,0 UV-I 0 W/m 15,4 km/h (3 Bft)
21.06.2013 00:12 18,3 C 15,7 C 92 % 1010,8 hPa 0,2 l/m 0 min 2 min 0,0 UV-I 0 W/m 18,0 km/h (3 Bft)
21.06.2013 00:14 18,1 C 15,7 C 92 % 1010,7 hPa 0,2 l/m 0 min 2 min 0,0 UV-I 0 W/m 15,4 km/h (3 Bft)
21.06.2013 00:16 18,0 C 15,7 C 92 % 1010,7 hPa 0,2 l/m 0 min 2 min 0,0 UV-I 0 W/m 7,7 km/h (2 Bft)
21.06.2013 00:18 17,9 C 15,7 C 92 % 1010,7 hPa 0,2 l/m 0 min 2 min 0,0 UV-I 0 W/m 10,3 km/h (2 Bft)
21.06.2013 00:20 17,8 C 15,7 C 92 % 1010,8 hPa 0,2 l/m 0 min 2 min 0,0 UV-I 0 W/m 0,0 km/h (0 Bft)
21.06.2013 00:22 17,7 C 15,1 C 92 % 1010,9 hPa 0,2 l/m 0 min 2 min 0,0 UV-I 0 W/m 15,4 km/h (3 Bft)
21.06.2013 00:24 17,6 C 15,1 C 92 % 1010,9 hPa 0,4 l/m 0 min 2 min 0,0 UV-I 0 W/m 7,7 km/h (2 Bft)
21.06.2013 00:26 17,5 C 15,1 C 92 % 1011,0 hPa 0,2 l/m 0 min 2 min 0,0 UV-I 0 W/m 5,1 km/h (1 Bft)
21.06.2013 00:28 17,4 C 15,1 C 92 % 1010,9 hPa 0,2 l/m 0 min 2 min 0,0 UV-I 0 W/m 18,0 km/h (3 Bft)
21.06.2013 00:30 17,4 C 15,1 C 92 % 1011,0 hPa 0,2 l/m 0 min 2 min 0,0 UV-I 0 W/m 12,9 km/h (3 Bft)
21.06.2013 00:32 17,2 C 15,1 C 92 % 1010,9 hPa 0,2 l/m 0 min 2 min 0,0 UV-I 0 W/m 12,9 km/h (3 Bft)
21.06.2013 00:34 17,2 C 15,1 C 93 % 1010,8 hPa 0,2 l/m 0 min 2 min 0,0 UV-I 0 W/m 12,9 km/h (3 Bft)
21.06.2013 00:36 17,1 C 15,1 C 93 % 1010,7 hPa 0,2 l/m 0 min 2 min 0,0 UV-I 0 W/m 12,9 km/h (3 Bft)
21.06.2013 00:38 17,0 C 15,1 C 93 % 1010,7 hPa 0,2 l/m 0 min 2 min 0,0 UV-I 0 W/m 12,9 km/h (3 Bft)
21.06.2013 00:40 16,9 C 15,1 C 93 % 1010,6 hPa 0,0 l/m 0 min 2 min 0,0 UV-I 0 W/m 7,7 km/h (2 Bft)
21.06.2013 00:42 16,9 C 15,1 C 93 % 1010,5 hPa 0,2 l/m 0 min 2 min 0,0 UV-I 0 W/m 5,1 km/h (1 Bft)
21.06.2013 00:44 16,8 C 15,1 C 93 % 1010,5 hPa 0,0 l/m 0 min 2 min 0,0 UV-I 0 W/m 7,7 km/h (2 Bft)
21.06.2013 00:46 16,8 C 15,1 C 93 % 1010,4 hPa 0,2 l/m 0 min 2 min 0,0 UV-I 0 W/m 10,3 km/h (2 Bft)
21.06.2013 00:48 16,7 C 15,1 C 94 % 1010,3 hPa 0,2 l/m 0 min 2 min 0,0 UV-I 0 W/m 12,9 km/h (3 Bft)
21.06.2013 00:50 16,6 C 15,1 C 94 % 1010,2 hPa 0,0 l/m 0 min 2 min 0,0 UV-I 0 W/m 12,9 km/h (3 Bft)
21.06.2013 00:52 16,6 C 14,6 C 94 % 1010,2 hPa 0,2 l/m 0 min 2 min 0,0 UV-I 0 W/m 2,6 km/h (1 Bft)
21.06.2013 00:54 16,6 C 14,6 C 94 % 1010,1 hPa 0,0 l/m 0 min 2 min 0,0 UV-I 0 W/m 7,7 km/h (2 Bft)
21.06.2013 00:56 16,5 C 15,1 C 94 % 1010,0 hPa 0,0 l/m 0 min 2 min 0,0 UV-I 0 W/m 10,3 km/h (2 Bft)
21.06.2013 00:58 16,4 C 15,1 C 94 % 1010,0 hPa 0,2 l/m 0 min 2 min 0,0 UV-I 0 W/m 12,9 km/h (3 Bft)
21.06.2013 01:00 16,4 C 14,6 C 94 % 1009,9 hPa 0,2 l/m 0 min 2 min 0,0 UV-I 0 W/m 10,3 km/h (2 Bft)
21.06.2013 01:02 16,4 C 14,6 C 96 % 1009,9 hPa 0,0 l/m 0 min 2 min 0,0 UV-I 0 W/m 2,6 km/h (1 Bft)
21.06.2013 01:06 16,3 C 14,6 C 94 % 1009,8 hPa 0,2 l/m 0 min 2 min 0,0 UV-I 0 W/m 5,1 km/h (1 Bft)
21.06.2013 01:08 16,3 C 14,6 C 95 % 1009,8 hPa 0,0 l/m 0 min 2 min 0,0 UV-I 0 W/m 0,0 km/h (0 Bft)
21.06.2013 01:10 16,3 C 14,6 C 95 % 1009,8 hPa 0,0 l/m 0 min 2 min 0,0 UV-I 0 W/m 2,6 km/h (1 Bft)
21.06.2013 01:12 16,3 C 14,6 C 95 % 1009,8 hPa 0,0 l/m 0 min 2 min 0,0 UV-I 0 W/m 5,1 km/h (1 Bft)
21.06.2013 01:14 16,3 C 14,6 C 95 % 1009,8 hPa 0,0 l/m 0 min 2 min 0,0 UV-I 0 W/m 0,0 km/h (0 Bft)
21.06.2013 01:16 16,2 C 14,6 C 95 % 1009,9 hPa 0,2 l/m 0 min 2 min 0,0 UV-I 0 W/m 0,0 km/h (0 Bft)
21.06.2013 01:18 16,2 C 14,6 C 95 % 1009,9 hPa 0,0 l/m 0 min 2 min 0,0 UV-I 0 W/m 0,0 km/h (0 Bft)
21.06.2013 01:20 16,2 C 14,6 C 95 % 1009,9 hPa 0,0 l/m 0 min 2 min 0,0 UV-I 0 W/m 0,0 km/h (0 Bft)
21.06.2013 01:22 16,2 C 14,6 C 95 % 1009,8 hPa 0,0 l/m 0 min 2 min 0,0 UV-I 0 W/m 2,6 km/h (1 Bft)
21.06.2013 01:24 16,2 C 14,6 C 95 % 1009,8 hPa 0,0 l/m 0 min 2 min 0,0 UV-I 0 W/m 0,0 km/h (0 Bft)
21.06.2013 01:26 16,2 C 14,6 C 95 % 1009,7 hPa 0,0 l/m 0 min 2 min 0,0 UV-I 0 W/m 0,0 km/h (0 Bft)
21.06.2013 01:28 16,2 C 14,6 C 95 % 1009,6 hPa 0,0 l/m 0 min 2 min 0,0 UV-I 0 W/m 0,0 km/h (0 Bft)
21.06.2013 01:30 16,2 C 14,6 C 95 % 1009,5 hPa 0,2 l/m 0 min 2 min 0,0 UV-I 0 W/m 0,0 km/h (0 Bft)
21.06.2013 01:32 16,2 C 14,6 C 95 % 1009,4 hPa 0,0 l/m 0 min 2 min 0,0 UV-I 0 W/m 0,0 km/h (0 Bft)
21.06.2013 01:34 16,2 C 14,6 C 95 % 1009,4 hPa 0,0 l/m 0 min 2 min 0,0 UV-I 0 W/m 0,0 km/h (0 Bft)
21.06.2013 01:36 16,2 C 14,6 C 95 % 1009,3 hPa 0,2 l/m 0 min 2 min 0,0 UV-I 0 W/m 2,6 km/h (1 Bft)
21.06.2013 01:38 16,2 C 14,6 C 95 % 1009,2 hPa 0,0 l/m 0 min 2 min 0,0 UV-I 0 W/m 0,0 km/h (0 Bft)
21.06.2013 01:40 16,2 C 14,6 C 95 % 1009,1 hPa 0,0 l/m 0 min 2 min 0,0 UV-I 0 W/m 0,0 km/h (0 Bft)
21.06.2013 01:42 16,2 C 14,6 C 96 % 1009,0 hPa 0,0 l/m 0 min 2 min 0,0 UV-I 0 W/m 0,0 km/h (0 Bft)
21.06.2013 01:44 16,2 C 14,6 C 96 % 1008,9 hPa 0,0 l/m 0 min 2 min 0,0 UV-I 0 W/m 0,0 km/h (0 Bft)
21.06.2013 01:46 16,2 C 14,6 C 96 % 1008,8 hPa 0,2 l/m 0 min 2 min 0,0 UV-I 0 W/m 0,0 km/h (0 Bft)
21.06.2013 01:48 16,2 C 14,6 C 96 % 1008,8 hPa 0,0 l/m 0 min 2 min 0,0 UV-I 0 W/m 0,0 km/h (0 Bft)
21.06.2013 01:50 16,2 C 14,6 C 96 % 1008,7 hPa 0,0 l/m 0 min 2 min 0,0 UV-I 0 W/m 0,0 km/h (0 Bft)
21.06.2013 01:52 16,2 C 14,6 C 96 % 1008,6 hPa 0,0 l/m 0 min 2 min 0,0 UV-I 0 W/m 0,0 km/h (0 Bft)
21.06.2013 01:54 16,2 C 14,6 C 96 % 1008,5 hPa 0,0 l/m 0 min 2 min 0,0 UV-I 0 W/m 0,0 km/h (0 Bft)
21.06.2013 01:56 16,2 C 14,6 C 96 % 1008,2 hPa 0,0 l/m 0 min 2 min 0,0 UV-I 0 W/m 0,0 km/h (0 Bft)
21.06.2013 01:58 16,2 C 14,6 C 96 % 1008,2 hPa 0,0 l/m 0 min 2 min 0,0 UV-I 0 W/m 0,0 km/h (0 Bft)
21.06.2013 02:00 16,2 C 14,6 C 96 % 1008,2 hPa 0,2 l/m 0 min 2 min 0,0 UV-I 0 W/m 0,0 km/h (0 Bft)
21.06.2013 02:02 16,2 C 15,1 C 96 % 1008,3 hPa 0,0 l/m 0 min 2 min 0,0 UV-I 0 W/m 0,0 km/h (0 Bft)
21.06.2013 02:05 16,1 C 14,6 C 96 % 1008,4 hPa 0,0 l/m 0 min 0 min 0,0 UV-I 0 W/m 0,0 km/h (0 Bft)
21.06.2013 02:06 16,2 C 14,6 C 96 % 1008,4 hPa 0,0 l/m 0 min 0 min 0,0 UV-I 0 W/m 0,0 km/h (0 Bft)
21.06.2013 02:08 16,1 C 15,1 C 96 % 1008,3 hPa 0,0 l/m 0 min 0 min 0,0 UV-I 0 W/m 0,0 km/h (0 Bft)
21.06.2013 02:10 16,1 C 14,6 C 96 % 1008,2 hPa 0,0 l/m 0 min 0 min 0,0 UV-I 0 W/m 0,0 km/h (0 Bft)
21.06.2013 02:12 16,1 C 14,6 C 96 % 1008,2 hPa 0,0 l/m 0 min 0 min 0,0 UV-I 0 W/m 0,0 km/h (0 Bft)
21.06.2013 02:14 16,1 C 14,6 C 96 % 1008,2 hPa 0,0 l/m 0 min 0 min 0,0 UV-I 0 W/m 0,0 km/h (0 Bft)
21.06.2013 02:16 16,1 C 14,6 C 96 % 1008,2 hPa 0,0 l/m 0 min 0 min 0,0 UV-I 0 W/m 0,0 km/h (0 Bft)
21.06.2013 02:18 16,1 C 14,6 C 96 % 1008,2 hPa 0,0 l/m 0 min 0 min 0,0 UV-I 0 W/m 0,0 km/h (0 Bft)
21.06.2013 02:20 16,1 C 14,6 C 96 % 1008,2 hPa 0,0 l/m 0 min 0 min 0,0 UV-I 0 W/m 0,0 km/h (0 Bft)
21.06.2013 02:22 16,1 C 14,6 C 96 % 1008,2 hPa 0,0 l/m 0 min 0 min 0,0 UV-I 0 W/m 0,0 km/h (0 Bft)
21.06.2013 02:24 16,1 C 14,6 C 96 % 1008,1 hPa 0,0 l/m 0 min 0 min 0,0 UV-I 0 W/m 0,0 km/h (0 Bft)
21.06.2013 02:26 16,1 C 14,6 C 96 % 1008,0 hPa 0,0 l/m 0 min 0 min 0,0 UV-I 0 W/m 0,0 km/h (0 Bft)
21.06.2013 02:28 16,1 C 14,6 C 96 % 1008,0 hPa 0,0 l/m 0 min 0 min 0,0 UV-I 0 W/m 0,0 km/h (0 Bft)
21.06.2013 02:30 16,1 C 14,6 C 96 % 1008,1 hPa 0,0 l/m 0 min 0 min 0,0 UV-I 0 W/m 0,0 km/h (0 Bft)
21.06.2013 02:32 16,1 C 14,6 C 96 % 1008,1 hPa 0,0 l/m 0 min 0 min 0,0 UV-I 0 W/m 0,0 km/h (0 Bft)
21.06.2013 02:34 16,1 C 14,6 C 96 % 1008,2 hPa 0,0 l/m 0 min 0 min 0,0 UV-I 0 W/m 0,0 km/h (0 Bft)
21.06.2013 02:36 16,1 C 14,6 C 96 % 1008,5 hPa 0,0 l/m 0 min 0 min 0,0 UV-I 0 W/m 0,0 km/h (0 Bft)
21.06.2013 02:38 16,1 C 14,6 C 96 % 1008,4 hPa 0,0 l/m 0 min 0 min 0,0 UV-I 0 W/m 7,7 km/h (2 Bft)
21.06.2013 02:40 16,1 C 14,6 C 96 % 1008,4 hPa 0,0 l/m 0 min 0 min 0,0 UV-I 0 W/m 2,6 km/h (1 Bft)
21.06.2013 02:42 16,1 C 14,6 C 96 % 1008,6 hPa 0,0 l/m 0 min 0 min 0,0 UV-I 0 W/m 2,6 km/h (1 Bft)
21.06.2013 02:44 16,1 C 14,6 C 96 % 1008,5 hPa 0,0 l/m 0 min 0 min 0,0 UV-I 0 W/m 0,0 km/h (0 Bft)
21.06.2013 02:46 16,1 C 14,6 C 96 % 1008,5 hPa 0,0 l/m 0 min 0 min 0,0 UV-I 0 W/m 0,0 km/h (0 Bft)
21.06.2013 02:48 16,1 C 14,6 C 97 % 1008,5 hPa 0,0 l/m 0 min 0 min 0,0 UV-I 0 W/m 5,1 km/h (1 Bft)
21.06.2013 02:50 16,1 C 14,6 C 97 % 1008,3 hPa 0,0 l/m 0 min 0 min 0,0 UV-I 0 W/m 5,1 km/h (1 Bft)
21.06.2013 02:52 16,1 C 14,6 C 97 % 1008,5 hPa 0,0 l/m 0 min 0 min 0,0 UV-I 0 W/m 5,1 km/h (1 Bft)
21.06.2013 02:54 16,1 C 14,6 C 97 % 1008,6 hPa 0,0 l/m 0 min 0 min 0,0 UV-I 0 W/m 5,1 km/h (1 Bft)
21.06.2013 02:56 16,0 C 14,6 C 97 % 1008,4 hPa 0,0 l/m 0 min 0 min 0,0 UV-I 0 W/m 2,6 km/h (1 Bft)
21.06.2013 02:58 16,0 C 14,6 C 97 % 1008,5 hPa 0,0 l/m 0 min 0 min 0,0 UV-I 0 W/m 5,1 km/h (1 Bft)
21.06.2013 03:00 16,0 C 14,6 C 97 % 1008,5 hPa 0,0 l/m 0 min 0 min 0,0 UV-I 0 W/m 5,1 km/h (1 Bft)
21.06.2013 03:02 15,9 C 14,6 C 97 % 1008,5 hPa 0,0 l/m 0 min 0 min 0,0 UV-I 0 W/m 12,9 km/h (3 Bft)
21.06.2013 03:07 15,9 C 14,6 C 97 % 1008,6 hPa 0,0 l/m 0 min 0 min 0,0 UV-I 0 W/m 7,7 km/h (2 Bft)
21.06.2013 03:08 15,9 C 14,6 C 97 % 1008,6 hPa 0,0 l/m 0 min 0 min 0,0 UV-I 0 W/m 7,7 km/h (2 Bft)
21.06.2013 03:10 15,8 C 14,6 C 97 % 1008,5 hPa 0,0 l/m 0 min 0 min 0,0 UV-I 0 W/m 10,3 km/h (2 Bft)
21.06.2013 03:12 15,8 C 14,6 C 97 % 1008,5 hPa 0,0 l/m 0 min 0 min 0,0 UV-I 0 W/m 10,3 km/h (2 Bft)
21.06.2013 03:14 15,8 C 14,6 C 97 % 1008,5 hPa 0,0 l/m 0 min 0 min 0,0 UV-I 0 W/m 0,0 km/h (0 Bft)
21.06.2013 03:16 15,8 C 14,6 C 97 % 1008,5 hPa 0,0 l/m 0 min 0 min 0,0 UV-I 0 W/m 2,6 km/h (1 Bft)
21.06.2013 03:18 15,7 C 14,6 C 97 % 1008,4 hPa 0,0 l/m 0 min 0 min 0,0 UV-I 0 W/m 10,3 km/h (2 Bft)
21.06.2013 03:20 15,7 C 14,6 C 97 % 1008,4 hPa 0,0 l/m 0 min 0 min 0,0 UV-I 0 W/m 0,0 km/h (0 Bft)
21.06.2013 03:22 15,7 C 14,6 C 97 % 1008,4 hPa 0,0 l/m 0 min 0 min 0,0 UV-I 0 W/m 5,1 km/h (1 Bft)
21.06.2013 03:24 15,7 C 14,6 C 97 % 1008,5 hPa 0,0 l/m 0 min 0 min 0,0 UV-I 0 W/m 7,7 km/h (2 Bft)
21.06.2013 03:26 15,7 C 14,0 C 97 % 1008,5 hPa 0,0 l/m 0 min 0 min 0,0 UV-I 0 W/m 0,0 km/h (0 Bft)
21.06.2013 03:28 15,7 C 14,0 C 97 % 1008,3 hPa 0,0 l/m 0 min 0 min 0,0 UV-I 0 W/m 10,3 km/h (2 Bft)
21.06.2013 03:30 15,7 C 14,0 C 97 % 1008,5 hPa 0,0 l/m 0 min 0 min 0,0 UV-I 0 W/m 7,7 km/h (2 Bft)
21.06.2013 03:32 15,6 C 14,0 C 97 % 1008,5 hPa 0,0 l/m 0 min 0 min 0,0 UV-I 0 W/m 2,6 km/h (1 Bft)
21.06.2013 03:34 15,6 C 14,0 C 97 % 1008,5 hPa 0,0 l/m 0 min 0 min 0,0 UV-I 0 W/m 0,0 km/h (0 Bft)
21.06.2013 03:36 15,6 C 14,0 C 97 % 1008,5 hPa 0,0 l/m 0 min 0 min 0,0 UV-I 0 W/m 0,0 km/h (0 Bft)
21.06.2013 03:38 15,6 C 14,0 C 97 % 1008,5 hPa 0,0 l/m 0 min 0 min 0,0 UV-I 0 W/m 2,6 km/h (1 Bft)
21.06.2013 03:40 15,6 C 14,0 C 97 % 1008,5 hPa 0,0 l/m 0 min 0 min 0,0 UV-I 0 W/m 0,0 km/h (0 Bft)
21.06.2013 03:42 15,6 C 14,0 C 97 % 1008,6 hPa 0,0 l/m 0 min 0 min 0,0 UV-I 0 W/m 10,3 km/h (2 Bft)
21.06.2013 03:44 15,6 C 14,0 C 97 % 1008,6 hPa 0,0 l/m 0 min 0 min 0,0 UV-I 0 W/m 0,0 km/h (0 Bft)
21.06.2013 03:46 15,6 C 14,0 C 97 % 1008,6 hPa 0,0 l/m 0 min 0 min 0,0 UV-I 0 W/m 0,0 km/h (0 Bft)
21.06.2013 03:48 15,5 C 14,0 C 97 % 1008,7 hPa 0,0 l/m 0 min 0 min 0,0 UV-I 0 W/m 0,0 km/h (0 Bft)
21.06.2013 03:50 15,5 C 14,0 C 97 % 1008,7 hPa 0,0 l/m 0 min 0 min 0,0 UV-I 0 W/m 7,7 km/h (2 Bft)
21.06.2013 03:52 15,5 C 14,0 C 97 % 1008,7 hPa 0,0 l/m 0 min 0 min 0,0 UV-I 0 W/m 7,7 km/h (2 Bft)
21.06.2013 03:54 15,5 C 14,0 C 97 % 1008,7 hPa 0,0 l/m 0 min 0 min 0,0 UV-I 0 W/m 7,7 km/h (2 Bft)
21.06.2013 03:56 15,5 C 14,0 C 97 % 1008,7 hPa 0,0 l/m 0 min 0 min 0,0 UV-I 0 W/m 0,0 km/h (0 Bft)
21.06.2013 03:58 15,4 C 14,0 C 97 % 1008,6 hPa 0,0 l/m 0 min 0 min 0,0 UV-I 0 W/m 0,0 km/h (0 Bft)
21.06.2013 04:00 15,4 C 14,0 C 97 % 1008,6 hPa 0,0 l/m 0 min 0 min 0,0 UV-I 0 W/m 0,0 km/h (0 Bft)
21.06.2013 04:02 15,4 C 14,0 C 97 % 1008,5 hPa 0,0 l/m 0 min 0 min 0,0 UV-I 0 W/m 0,0 km/h (0 Bft)
21.06.2013 04:06 15,4 C 14,0 C 97 % 1008,7 hPa 0,0 l/m 0 min 0 min 0,0 UV-I 0 W/m 0,0 km/h (0 Bft)
21.06.2013 04:08 15,4 C 14,0 C 97 % 1008,7 hPa 0,0 l/m 0 min 0 min 0,0 UV-I 0 W/m 0,0 km/h (0 Bft)
21.06.2013 04:10 15,4 C 14,0 C 97 % 1008,6 hPa 0,0 l/m 0 min 0 min 0,0 UV-I 0 W/m 0,0 km/h (0 Bft)
21.06.2013 04:12 15,4 C 14,0 C 97 % 1008,7 hPa 0,0 l/m 0 min 0 min 0,0 UV-I 0 W/m 0,0 km/h (0 Bft)
21.06.2013 04:14 15,4 C 14,0 C 97 % 1008,7 hPa 0,0 l/m 0 min 0 min 0,0 UV-I 0 W/m 2,6 km/h (1 Bft)
21.06.2013 04:16 15,3 C 14,0 C 97 % 1008,8 hPa 0,0 l/m 0 min 0 min 0,0 UV-I 0 W/m 5,1 km/h (1 Bft)
21.06.2013 04:18 15,3 C 14,0 C 97 % 1008,8 hPa 0,0 l/m 0 min 0 min 0,0 UV-I 0 W/m 0,0 km/h (0 Bft)
21.06.2013 04:20 15,3 C 14,0 C 97 % 1008,7 hPa 0,0 l/m 0 min 0 min 0,0 UV-I 0 W/m 0,0 km/h (0 Bft)
21.06.2013 04:22 15,3 C 14,0 C 97 % 1008,7 hPa 0,0 l/m 0 min 0 min 0,0 UV-I 0 W/m 0,0 km/h (0 Bft)
21.06.2013 04:24 15,3 C 14,0 C 97 % 1008,8 hPa 0,0 l/m 0 min 0 min 0,0 UV-I 0 W/m 5,1 km/h (1 Bft)
21.06.2013 04:26 15,3 C 14,0 C 97 % 1008,7 hPa 0,0 l/m 0 min 0 min 0,0 UV-I 0 W/m 0,0 km/h (0 Bft)
21.06.2013 04:28 15,3 C 14,0 C 97 % 1008,6 hPa 0,0 l/m 0 min 0 min 0,0 UV-I 0 W/m 2,6 km/h (1 Bft)
21.06.2013 04:30 15,3 C 14,0 C 97 % 1008,8 hPa 0,0 l/m 0 min 0 min 0,0 UV-I 0 W/m 5,1 km/h (1 Bft)
21.06.2013 04:32 15,2 C 14,0 C 97 % 1008,8 hPa 0,0 l/m 0 min 0 min 0,0 UV-I 0 W/m 7,7 km/h (2 Bft)
21.06.2013 04:34 15,2 C 14,0 C 97 % 1008,8 hPa 0,0 l/m 0 min 0 min 0,0 UV-I 0 W/m 7,7 km/h (2 Bft)
21.06.2013 04:36 15,2 C 14,0 C 97 % 1008,8 hPa 0,0 l/m 0 min 0 min 0,0 UV-I 0 W/m 0,0 km/h (0 Bft)
21.06.2013 04:38 15,2 C 14,0 C 97 % 1008,8 hPa 0,0 l/m 0 min 0 min 0,0 UV-I 0 W/m 7,7 km/h (2 Bft)
21.06.2013 04:40 15,2 C 14,0 C 97 % 1008,8 hPa 0,0 l/m 0 min 0 min 0,0 UV-I 0 W/m 7,7 km/h (2 Bft)
21.06.2013 04:42 15,2 C 14,0 C 97 % 1008,7 hPa 0,0 l/m 0 min 0 min 0,0 UV-I 0 W/m 2,6 km/h (1 Bft)
21.06.2013 04:44 15,2 C 14,0 C 97 % 1008,8 hPa 0,0 l/m 0 min 0 min 0,0 UV-I 0 W/m 10,3 km/h (2 Bft)
21.06.2013 04:46 15,2 C 14,0 C 97 % 1008,8 hPa 0,0 l/m 0 min 0 min 0,0 UV-I 0 W/m 7,7 km/h (2 Bft)
21.06.2013 04:48 15,2 C 14,0 C 97 % 1008,8 hPa 0,0 l/m 0 min 0 min 0,0 UV-I 0 W/m 7,7 km/h (2 Bft)
21.06.2013 04:50 15,2 C 14,0 C 97 % 1008,8 hPa 0,0 l/m 0 min 0 min 0,0 UV-I 0 W/m 0,0 km/h (0 Bft)
21.06.2013 04:52 15,2 C 14,0 C 97 % 1008,8 hPa 0,0 l/m 0 min 0 min 0,0 UV-I 0 W/m 12,9 km/h (3 Bft)
21.06.2013 04:54 15,2 C 14,0 C 97 % 1008,8 hPa 0,0 l/m 0 min 0 min 0,0 UV-I 0 W/m 10,3 km/h (2 Bft)
21.06.2013 04:56 15,2 C 14,0 C 97 % 1008,8 hPa 0,0 l/m 0 min 0 min 0,0 UV-I 0 W/m 15,4 km/h (3 Bft)
21.06.2013 04:58 15,1 C 14,0 C 97 % 1008,8 hPa 0,0 l/m 0 min 0 min 0,0 UV-I 0 W/m 5,1 km/h (1 Bft)
21.06.2013 05:00 15,1 C 14,0 C 97 % 1008,7 hPa 0,0 l/m 0 min 0 min 0,0 UV-I 0 W/m 0,0 km/h (0 Bft)
21.06.2013 05:02 15,1 C 14,0 C 97 % 1008,8 hPa 0,0 l/m 0 min 0 min 0,0 UV-I 0 W/m 5,1 km/h (1 Bft)
21.06.2013 05:05 15,1 C 14,0 C 97 % 1008,8 hPa 0,0 l/m 0 min 0 min 0,0 UV-I 0 W/m 0,0 km/h (0 Bft)
21.06.2013 05:06 15,1 C 14,0 C 97 % 1008,8 hPa 0,0 l/m 0 min 0 min 0,0 UV-I 0 W/m 0,0 km/h (0 Bft)
21.06.2013 05:08 15,1 C 14,0 C 97 % 1008,7 hPa 0,0 l/m 0 min 0 min 0,0 UV-I 0 W/m 5,1 km/h (1 Bft)
21.06.2013 05:10 15,1 C 14,0 C 97 % 1008,8 hPa 0,0 l/m 0 min 0 min 0,0 UV-I 0 W/m 0,0 km/h (0 Bft)
21.06.2013 05:12 15,1 C 14,0 C 97 % 1008,8 hPa 0,0 l/m 0 min 0 min 0,0 UV-I 0 W/m 0,0 km/h (0 Bft)
21.06.2013 05:14 15,1 C 14,0 C 97 % 1008,8 hPa 0,0 l/m 0 min 0 min 0,0 UV-I 0 W/m 0,0 km/h (0 Bft)
21.06.2013 05:16 15,1 C 14,0 C 97 % 1008,8 hPa 0,0 l/m 0 min 0 min 0,0 UV-I 0 W/m 10,3 km/h (2 Bft)
21.06.2013 05:18 15,1 C 14,0 C 97 % 1008,8 hPa 0,0 l/m 0 min 0 min 0,0 UV-I 0 W/m 5,1 km/h (1 Bft)
21.06.2013 05:20 15,1 C 14,0 C 97 % 1008,8 hPa 0,0 l/m 0 min 0 min 0,0 UV-I 0 W/m 10,3 km/h (2 Bft)
21.06.2013 05:22 15,1 C 14,0 C 97 % 1008,8 hPa 0,0 l/m 0 min 0 min 0,0 UV-I 0 W/m 10,3 km/h (2 Bft)
21.06.2013 05:24 15,1 C 14,0 C 97 % 1008,7 hPa 0,0 l/m 0 min 0 min 0,0 UV-I 0 W/m 7,7 km/h (2 Bft)
21.06.2013 05:26 15,1 C 14,0 C 98 % 1008,8 hPa 0,0 l/m 0 min 0 min 0,0 UV-I 0 W/m 10,3 km/h (2 Bft)
21.06.2013 05:28 15,1 C 14,0 C 98 % 1008,7 hPa 0,0 l/m 0 min 0 min 0,0 UV-I 5 W/m 0,0 km/h (0 Bft)
21.06.2013 05:30 15,2 C 14,0 C 98 % 1008,7 hPa 0,0 l/m 0 min 0 min 0,0 UV-I 5 W/m 10,3 km/h (2 Bft)
21.06.2013 05:32 15,2 C 14,0 C 98 % 1008,7 hPa 0,0 l/m 0 min 0 min 0,0 UV-I 5 W/m 0,0 km/h (0 Bft)
21.06.2013 05:34 15,2 C 14,0 C 98 % 1008,8 hPa 0,0 l/m 0 min 0 min 0,0 UV-I 7 W/m 5,1 km/h (1 Bft)
21.06.2013 05:36 15,2 C 14,0 C 98 % 1008,9 hPa 0,0 l/m 0 min 0 min 0,0 UV-I 7 W/m 10,3 km/h (2 Bft)
21.06.2013 05:38 15,2 C 14,0 C 98 % 1008,8 hPa 0,0 l/m 0 min 0 min 0,0 UV-I 9 W/m 10,3 km/h (2 Bft)
21.06.2013 05:40 15,2 C 14,6 C 98 % 1008,9 hPa 0,0 l/m 0 min 0 min 0,0 UV-I 9 W/m 7,7 km/h (2 Bft)
21.06.2013 05:42 15,2 C 14,0 C 98 % 1008,8 hPa 0,0 l/m 0 min 0 min 0,0 UV-I 11 W/m 10,3 km/h (2 Bft)
21.06.2013 05:44 15,2 C 14,6 C 98 % 1008,9 hPa 0,0 l/m 0 min 0 min 0,0 UV-I 11 W/m 7,7 km/h (2 Bft)
21.06.2013 05:46 15,3 C 14,6 C 98 % 1009,0 hPa 0,0 l/m 0 min 0 min 0,0 UV-I 11 W/m 5,1 km/h (1 Bft)
21.06.2013 05:48 15,3 C 14,6 C 98 % 1008,9 hPa 0,0 l/m 0 min 0 min 0,0 UV-I 11 W/m 2,6 km/h (1 Bft)
21.06.2013 05:50 15,3 C 14,6 C 98 % 1008,9 hPa 0,0 l/m 0 min 0 min 0,0 UV-I 11 W/m 7,7 km/h (2 Bft)
21.06.2013 05:52 15,3 C 14,6 C 98 % 1008,9 hPa 0,0 l/m 0 min 0 min 0,0 UV-I 11 W/m 0,0 km/h (0 Bft)
21.06.2013 05:54 15,3 C 14,6 C 98 % 1008,9 hPa 0,0 l/m 0 min 0 min 0,0 UV-I 11 W/m 7,7 km/h (2 Bft)
21.06.2013 05:56 15,3 C 14,6 C 98 % 1009,0 hPa 0,0 l/m 0 min 0 min 0,0 UV-I 12 W/m 7,7 km/h (2 Bft)
21.06.2013 05:58 15,3 C 14,6 C 98 % 1009,0 hPa 0,0 l/m 0 min 0 min 0,0 UV-I 11 W/m 5,1 km/h (1 Bft)
21.06.2013 06:00 15,3 C 14,6 C 98 % 1009,0 hPa 0,0 l/m 0 min 0 min 0,0 UV-I 11 W/m 5,1 km/h (1 Bft)
21.06.2013 06:02 15,3 C 14,6 C 98 % 1009,0 hPa 0,0 l/m 0 min 0 min 0,0 UV-I 12 W/m 7,7 km/h (2 Bft)
21.06.2013 06:06 15,4 C 14,6 C 98 % 1008,9 hPa 0,0 l/m 0 min 2 min 0,0 UV-I 18 W/m 2,6 km/h (1 Bft)
21.06.2013 06:08 15,4 C 14,6 C 98 % 1008,9 hPa 0,0 l/m 0 min 2 min 0,0 UV-I 19 W/m 15,4 km/h (3 Bft)
21.06.2013 06:10 15,4 C 14,6 C 98 % 1008,9 hPa 0,0 l/m 0 min 0 min 0,0 UV-I 19 W/m 0,0 km/h (0 Bft)
21.06.2013 06:12 15,4 C 14,6 C 98 % 1009,0 hPa 0,0 l/m 0 min 0 min 0,0 UV-I 19 W/m 2,6 km/h (1 Bft)
21.06.2013 06:14 15,4 C 14,6 C 98 % 1008,9 hPa 0,0 l/m 0 min 0 min 0,0 UV-I 18 W/m 0,0 km/h (0 Bft)
21.06.2013 06:16 15,4 C 14,6 C 98 % 1008,9 hPa 0,0 l/m 0 min 0 min 0,0 UV-I 18 W/m 10,3 km/h (2 Bft)
21.06.2013 06:18 15,4 C 14,6 C 98 % 1009,0 hPa 0,0 l/m 0 min 0 min 0,0 UV-I 16 W/m 18,0 km/h (3 Bft)
21.06.2013 06:20 15,4 C 14,6 C 98 % 1008,9 hPa 0,0 l/m 0 min 0 min 0,0 UV-I 14 W/m 0,0 km/h (0 Bft)
21.06.2013 06:22 15,4 C 14,6 C 98 % 1009,0 hPa 0,0 l/m 0 min 0 min 0,0 UV-I 12 W/m 15,4 km/h (3 Bft)
21.06.2013 06:24 15,4 C 14,0 C 98 % 1009,1 hPa 0,0 l/m 0 min 2 min 0,0 UV-I 11 W/m 18,0 km/h (3 Bft)
21.06.2013 06:26 15,4 C 14,0 C 98 % 1009,1 hPa 0,0 l/m 0 min 2 min 0,0 UV-I 11 W/m 12,9 km/h (3 Bft)
21.06.2013 06:28 15,4 C 14,0 C 98 % 1009,2 hPa 0,0 l/m 0 min 2 min 0,0 UV-I 11 W/m 2,6 km/h (1 Bft)
21.06.2013 06:30 15,4 C 14,0 C 98 % 1009,2 hPa 0,0 l/m 0 min 0 min 0,0 UV-I 11 W/m 12,9 km/h (3 Bft)
21.06.2013 06:32 15,4 C 14,0 C 98 % 1009,2 hPa 0,0 l/m 0 min 2 min 0,0 UV-I 12 W/m 10,3 km/h (2 Bft)
21.06.2013 06:34 15,4 C 14,0 C 98 % 1009,2 hPa 0,0 l/m 0 min 2 min 0,0 UV-I 12 W/m 18,0 km/h (3 Bft)
21.06.2013 06:36 15,4 C 14,0 C 98 % 1009,2 hPa 0,0 l/m 0 min 2 min 0,0 UV-I 12 W/m 10,3 km/h (2 Bft)
21.06.2013 06:38 15,4 C 14,0 C 98 % 1009,2 hPa 0,0 l/m 0 min 2 min 0,0 UV-I 12 W/m 12,9 km/h (3 Bft)
21.06.2013 06:40 15,4 C 14,0 C 98 % 1009,2 hPa 0,0 l/m 0 min 2 min 0,0 UV-I 16 W/m 20,6 km/h (4 Bft)
21.06.2013 06:42 15,4 C 14,0 C 98 % 1009,2 hPa 0,0 l/m 0 min 2 min 0,0 UV-I 18 W/m 15,4 km/h (3 Bft)
21.06.2013 06:44 15,4 C 14,0 C 98 % 1009,3 hPa 0,0 l/m 0 min 2 min 0,0 UV-I 18 W/m 5,1 km/h (1 Bft)
21.06.2013 06:46 15,4 C 14,0 C 98 % 1009,3 hPa 0,0 l/m 0 min 2 min 0,0 UV-I 19 W/m 10,3 km/h (2 Bft)
21.06.2013 06:48 15,4 C 14,0 C 98 % 1009,3 hPa 0,0 l/m 0 min 2 min 0,0 UV-I 21 W/m 10,3 km/h (2 Bft)
21.06.2013 06:50 15,4 C 14,0 C 98 % 1009,2 hPa 0,0 l/m 0 min 2 min 0,0 UV-I 28 W/m 5,1 km/h (1 Bft)
21.06.2013 06:52 15,4 C 14,0 C 98 % 1009,2 hPa 0,0 l/m 0 min 2 min 0,0 UV-I 33 W/m 5,1 km/h (1 Bft)
21.06.2013 06:54 15,3 C 14,0 C 98 % 1009,2 hPa 0,0 l/m 0 min 2 min 0,0 UV-I 37 W/m 0,0 km/h (0 Bft)
21.06.2013 06:56 15,4 C 14,0 C 98 % 1009,2 hPa 0,0 l/m 0 min 2 min 0,0 UV-I 42 W/m 2,6 km/h (1 Bft)
21.06.2013 06:58 15,4 C 14,0 C 98 % 1009,1 hPa 0,0 l/m 0 min 2 min 0,0 UV-I 47 W/m 0,0 km/h (0 Bft)
21.06.2013 07:00 15,4 C 14,6 C 98 % 1009,2 hPa 0,0 l/m 0 min 2 min 0,0 UV-I 53 W/m 2,6 km/h (1 Bft)
21.06.2013 07:02 15,4 C 14,6 C 98 % 1009,2 hPa 0,0 l/m 0 min 2 min 0,0 UV-I 58 W/m 5,1 km/h (1 Bft)
21.06.2013 07:06 15,4 C 14,0 C 98 % 1009,3 hPa 0,2 l/m 0 min 2 min 0,0 UV-I 53 W/m 18,0 km/h (3 Bft)
21.06.2013 07:08 15,4 C 14,0 C 97 % 1009,2 hPa 0,0 l/m 0 min 2 min 0,0 UV-I 47 W/m 7,7 km/h (2 Bft)
21.06.2013 07:10 15,4 C 14,6 C 97 % 1009,1 hPa 0,0 l/m 0 min 0 min 0,0 UV-I 47 W/m 0,0 km/h (0 Bft)
21.06.2013 07:12 15,4 C 14,6 C 97 % 1009,2 hPa 0,0 l/m 0 min 0 min 0,0 UV-I 53 W/m 12,9 km/h (3 Bft)
21.06.2013 07:14 15,4 C 14,6 C 97 % 1009,2 hPa 0,0 l/m 0 min 0 min 0,0 UV-I 53 W/m 2,6 km/h (1 Bft)
21.06.2013 07:16 15,4 C 14,0 C 97 % 1009,1 hPa 0,0 l/m 0 min 0 min 0,0 UV-I 56 W/m 10,3 km/h (2 Bft)
21.06.2013 07:18 15,4 C 14,6 C 97 % 1009,2 hPa 0,0 l/m 0 min 0 min 0,0 UV-I 60 W/m 7,7 km/h (2 Bft)
21.06.2013 07:20 15,4 C 14,0 C 97 % 1009,2 hPa 0,0 l/m 0 min 0 min 0,0 UV-I 62 W/m 12,9 km/h (3 Bft)
21.06.2013 07:22 15,4 C 14,0 C 97 % 1009,2 hPa 0,0 l/m 0 min 0 min 0,0 UV-I 63 W/m 7,7 km/h (2 Bft)
21.06.2013 07:24 15,4 C 14,6 C 97 % 1009,2 hPa 0,0 l/m 0 min 0 min 0,0 UV-I 65 W/m 18,0 km/h (3 Bft)
21.06.2013 07:26 15,4 C 14,6 C 97 % 1009,2 hPa 0,0 l/m 0 min 0 min 0,0 UV-I 69 W/m 10,3 km/h (2 Bft)
21.06.2013 07:28 15,4 C 14,6 C 97 % 1009,3 hPa 0,0 l/m 0 min 0 min 0,0 UV-I 69 W/m 10,3 km/h (2 Bft)
21.06.2013 07:30 15,4 C 14,6 C 97 % 1009,2 hPa 0,0 l/m 0 min 0 min 0,0 UV-I 79 W/m 7,7 km/h (2 Bft)
21.06.2013 07:32 15,5 C 14,6 C 97 % 1009,3 hPa 0,0 l/m 0 min 0 min 0,0 UV-I 88 W/m 18,0 km/h (3 Bft)
21.06.2013 07:34 15,5 C 14,6 C 97 % 1009,2 hPa 0,0 l/m 0 min 0 min 0,0 UV-I 93 W/m 2,6 km/h (1 Bft)
21.06.2013 07:36 15,5 C 14,6 C 97 % 1009,2 hPa 0,0 l/m 0 min 0 min 0,0 UV-I 102 W/m 10,3 km/h (2 Bft)
21.06.2013 07:38 15,5 C 14,6 C 97 % 1009,2 hPa 0,0 l/m 0 min 2 min 0,0 UV-I 109 W/m 20,6 km/h (4 Bft)
21.06.2013 07:40 15,5 C 14,6 C 97 % 1009,1 hPa 0,0 l/m 0 min 0 min 0,0 UV-I 107 W/m 7,7 km/h (2 Bft)
21.06.2013 07:42 15,6 C 14,6 C 97 % 1009,2 hPa 0,0 l/m 0 min 0 min 0,0 UV-I 109 W/m 10,3 km/h (2 Bft)
21.06.2013 07:44 15,6 C 14,6 C 97 % 1009,2 hPa 0,0 l/m 0 min 0 min 0,0 UV-I 90 W/m 7,7 km/h (2 Bft)
21.06.2013 07:46 15,6 C 14,6 C 97 % 1009,2 hPa 0,0 l/m 0 min 0 min 0,0 UV-I 81 W/m 7,7 km/h (2 Bft)
21.06.2013 07:48 15,6 C 14,6 C 97 % 1009,2 hPa 0,0 l/m 0 min 0 min 0,0 UV-I 81 W/m 10,3 km/h (2 Bft)
21.06.2013 07:50 15,6 C 14,6 C 96 % 1009,2 hPa 0,0 l/m 0 min 0 min 0,0 UV-I 77 W/m 12,9 km/h (3 Bft)
21.06.2013 07:52 15,7 C 14,6 C 96 % 1009,2 hPa 0,0 l/m 0 min 0 min 0,0 UV-I 72 W/m 10,3 km/h (2 Bft)
21.06.2013 07:54 15,7 C 14,6 C 96 % 1009,2 hPa 0,0 l/m 0 min 0 min 0,0 UV-I 70 W/m 2,6 km/h (1 Bft)
21.06.2013 07:56 15,7 C 14,6 C 96 % 1009,3 hPa 0,0 l/m 0 min 0 min 0,0 UV-I 74 W/m 7,7 km/h (2 Bft)
21.06.2013 07:58 15,7 C 14,6 C 96 % 1009,3 hPa 0,0 l/m 0 min 0 min 0,0 UV-I 79 W/m 15,4 km/h (3 Bft)
21.06.2013 08:00 15,7 C 14,6 C 96 % 1009,2 hPa 0,0 l/m 0 min 0 min 0,0 UV-I 77 W/m 10,3 km/h (2 Bft)
21.06.2013 08:02 15,7 C 14,6 C 96 % 1009,2 hPa 0,0 l/m 0 min 0 min 0,0 UV-I 69 W/m 12,9 km/h (3 Bft)
21.06.2013 08:06 15,8 C 14,6 C 96 % 1009,1 hPa 0,0 l/m 0 min 0 min 0,0 UV-I 72 W/m 10,3 km/h (2 Bft)
21.06.2013 08:08 15,8 C 15,1 C 96 % 1009,2 hPa 0,0 l/m 0 min 0 min 0,0 UV-I 86 W/m 12,9 km/h (3 Bft)
21.06.2013 08:10 15,8 C 15,1 C 96 % 1009,2 hPa 0,0 l/m 0 min 0 min 0,0 UV-I 100 W/m 10,3 km/h (2 Bft)
21.06.2013 08:12 15,8 C 15,1 C 96 % 1009,3 hPa 0,0 l/m 0 min 0 min 0,0 UV-I 104 W/m 18,0 km/h (3 Bft)
21.06.2013 08:14 15,8 C 15,1 C 95 % 1009,2 hPa 0,0 l/m 0 min 0 min 0,0 UV-I 121 W/m 10,3 km/h (2 Bft)
21.06.2013 08:16 15,9 C 15,1 C 95 % 1009,2 hPa 0,0 l/m 0 min 0 min 0,0 UV-I 134 W/m 7,7 km/h (2 Bft)
21.06.2013 08:18 15,9 C 15,1 C 95 % 1009,2 hPa 0,0 l/m 0 min 0 min 0,0 UV-I 123 W/m 15,4 km/h (3 Bft)
21.06.2013 08:20 15,9 C 15,1 C 95 % 1009,2 hPa 0,0 l/m 0 min 0 min 0,0 UV-I 137 W/m 10,3 km/h (2 Bft)
21.06.2013 08:22 15,9 C 15,7 C 95 % 1009,2 hPa 0,0 l/m 0 min 0 min 0,0 UV-I 148 W/m 12,9 km/h (3 Bft)
21.06.2013 08:24 15,9 C 15,7 C 95 % 1009,2 hPa 0,0 l/m 0 min 0 min 0,0 UV-I 155 W/m 12,9 km/h (3 Bft)
21.06.2013 08:26 16,0 C 15,7 C 94 % 1009,2 hPa 0,0 l/m 0 min 0 min 0,0 UV-I 155 W/m 10,3 km/h (2 Bft)
21.06.2013 08:28 16,1 C 15,7 C 94 % 1009,2 hPa 0,0 l/m 0 min 0 min 0,0 UV-I 179 W/m 15,4 km/h (3 Bft)
21.06.2013 08:30 16,1 C 15,7 C 94 % 1009,3 hPa 0,0 l/m 0 min 0 min 0,0 UV-I 192 W/m 10,3 km/h (2 Bft)
21.06.2013 08:32 16,1 C 15,7 C 94 % 1009,2 hPa 0,0 l/m 0 min 0 min 0,0 UV-I 188 W/m 15,4 km/h (3 Bft)
21.06.2013 08:34 16,2 C 15,7 C 94 % 1009,2 hPa 0,0 l/m 0 min 0 min 0,0 UV-I 199 W/m 15,4 km/h (3 Bft)
21.06.2013 08:36 16,2 C 15,7 C 93 % 1009,2 hPa 0,0 l/m 0 min 0 min 0,0 UV-I 209 W/m 12,9 km/h (3 Bft)
21.06.2013 08:38 16,2 C 15,7 C 93 % 1009,3 hPa 0,0 l/m 0 min 0 min 0,0 UV-I 192 W/m 15,4 km/h (3 Bft)
21.06.2013 08:40 16,3 C 15,7 C 93 % 1009,3 hPa 0,0 l/m 0 min 0 min 0,0 UV-I 195 W/m 12,9 km/h (3 Bft)
21.06.2013 08:42 16,3 C 16,2 C 93 % 1009,2 hPa 0,0 l/m 0 min 0 min 0,0 UV-I 199 W/m 5,1 km/h (1 Bft)
21.06.2013 08:44 16,4 C 16,2 C 93 % 1009,1 hPa 0,0 l/m 0 min 0 min 0,0 UV-I 192 W/m 23,2 km/h (4 Bft)
21.06.2013 08:46 16,4 C 16,2 C 93 % 1009,1 hPa 0,0 l/m 0 min 0 min 0,0 UV-I 179 W/m 15,4 km/h (3 Bft)
21.06.2013 08:48 16,4 C 16,2 C 92 % 1009,2 hPa 0,0 l/m 0 min 0 min 0,0 UV-I 169 W/m 10,3 km/h (2 Bft)
21.06.2013 08:50 16,4 C 15,7 C 92 % 1009,3 hPa 0,0 l/m 0 min 0 min 0,0 UV-I 162 W/m 25,7 km/h (4 Bft)
21.06.2013 08:52 16,4 C 15,7 C 92 % 1009,4 hPa 0,0 l/m 0 min 0 min 0,0 UV-I 141 W/m 20,6 km/h (4 Bft)
21.06.2013 08:54 16,4 C 15,7 C 92 % 1009,5 hPa 0,0 l/m 0 min 0 min 0,0 UV-I 113 W/m 25,7 km/h (4 Bft)
21.06.2013 08:56 16,4 C 15,7 C 91 % 1009,5 hPa 0,0 l/m 0 min 0 min 0,0 UV-I 105 W/m 23,2 km/h (4 Bft)
21.06.2013 08:58 16,4 C 15,7 C 91 % 1009,5 hPa 0,0 l/m 0 min 0 min 0,0 UV-I 127 W/m 15,4 km/h (3 Bft)
21.06.2013 09:00 16,4 C 15,7 C 91 % 1009,5 hPa 0,0 l/m 0 min 0 min 0,0 UV-I 144 W/m 7,7 km/h (2 Bft)
21.06.2013 09:02 16,5 C 15,7 C 91 % 1009,4 hPa 0,0 l/m 0 min 0 min 0,0 UV-I 155 W/m 12,9 km/h (3 Bft)
21.06.2013 09:05 16,5 C 15,7 C 91 % 1009,5 hPa 0,0 l/m 0 min 0 min 0,0 UV-I 158 W/m 18,0 km/h (3 Bft)
21.06.2013 09:06 16,5 C 15,7 C 91 % 1009,5 hPa 0,0 l/m 0 min 0 min 0,0 UV-I 163 W/m 15,4 km/h (3 Bft)
21.06.2013 09:08 16,5 C 15,7 C 91 % 1009,5 hPa 0,0 l/m 0 min 0 min 0,0 UV-I 172 W/m 12,9 km/h (3 Bft)
21.06.2013 09:10 16,5 C 16,2 C 91 % 1009,5 hPa 0,0 l/m 0 min 0 min 0,0 UV-I 171 W/m 18,0 km/h (3 Bft)
21.06.2013 09:12 16,5 C 16,2 C 91 % 1009,5 hPa 0,0 l/m 0 min 0 min 0,0 UV-I 193 W/m 12,9 km/h (3 Bft)
21.06.2013 09:14 16,6 C 16,2 C 91 % 1009,5 hPa 0,0 l/m 0 min 0 min 0,0 UV-I 197 W/m 15,4 km/h (3 Bft)
21.06.2013 09:16 16,6 C 16,2 C 91 % 1009,6 hPa 0,0 l/m 0 min 0 min 0,0 UV-I 188 W/m 18,0 km/h (3 Bft)
21.06.2013 09:18 16,6 C 16,2 C 90 % 1009,5 hPa 0,0 l/m 0 min 0 min 0,0 UV-I 195 W/m 18,0 km/h (3 Bft)
21.06.2013 09:20 16,6 C 16,2 C 90 % 1009,5 hPa 0,0 l/m 0 min 0 min 0,0 UV-I 195 W/m 15,4 km/h (3 Bft)
21.06.2013 09:22 16,6 C 16,2 C 90 % 1009,4 hPa 0,0 l/m 0 min 0 min 0,0 UV-I 193 W/m 18,0 km/h (3 Bft)
21.06.2013 09:24 16,6 C 16,2 C 90 % 1009,5 hPa 0,0 l/m 0 min 0 min 0,0 UV-I 199 W/m 2,6 km/h (1 Bft)
21.06.2013 09:26 16,7 C 16,2 C 91 % 1009,5 hPa 0,0 l/m 0 min 0 min 0,0 UV-I 204 W/m 12,9 km/h (3 Bft)
21.06.2013 09:28 16,7 C 16,2 C 90 % 1009,5 hPa 0,0 l/m 0 min 0 min 0,0 UV-I 207 W/m 23,2 km/h (4 Bft)
21.06.2013 09:30 16,7 C 16,2 C 90 % 1009,7 hPa 0,0 l/m 0 min 0 min 0,0 UV-I 204 W/m 28,3 km/h (4 Bft)
21.06.2013 09:32 16,7 C 16,2 C 90 % 1009,6 hPa 0,0 l/m 0 min 0 min 0,0 UV-I 197 W/m 10,3 km/h (2 Bft)
21.06.2013 09:34 16,7 C 16,2 C 90 % 1009,6 hPa 0,0 l/m 0 min 0 min 0,0 UV-I 206 W/m 20,6 km/h (4 Bft)
21.06.2013 09:36 16,7 C 16,2 C 90 % 1009,7 hPa 0,0 l/m 0 min 0 min 0,5 UV-I 227 W/m 20,6 km/h (4 Bft)
21.06.2013 09:38 16,7 C 16,2 C 90 % 1009,7 hPa 0,0 l/m 0 min 0 min 0,6 UV-I 241 W/m 18,0 km/h (3 Bft)
21.06.2013 09:40 16,7 C 16,2 C 90 % 1009,6 hPa 0,0 l/m 0 min 0 min 0,7 UV-I 257 W/m 15,4 km/h (3 Bft)
21.06.2013 09:42 16,8 C 16,2 C 90 % 1009,5 hPa 0,0 l/m 2 min 0 min 0,9 UV-I 359 W/m 18,0 km/h (3 Bft)
21.06.2013 09:44 16,8 C 16,8 C 90 % 1009,6 hPa 0,0 l/m 2 min 0 min 1,1 UV-I 719 W/m 18,0 km/h (3 Bft)
21.06.2013 09:46 16,9 C 16,8 C 90 % 1009,5 hPa 0,0 l/m 2 min 0 min 0,8 UV-I 413 W/m 15,4 km/h (3 Bft)
21.06.2013 09:48 16,9 C 16,8 C 90 % 1009,5 hPa 0,0 l/m 0 min 0 min 0,8 UV-I 285 W/m 10,3 km/h (2 Bft)
21.06.2013 09:50 17,0 C 16,8 C 90 % 1009,9 hPa 0,0 l/m 0 min 0 min 1,1 UV-I 330 W/m 20,6 km/h (4 Bft)
21.06.2013 09:52 17,1 C 16,8 C 89 % 1009,6 hPa 0,0 l/m 0 min 0 min 0,9 UV-I 211 W/m 10,3 km/h (2 Bft)
21.06.2013 09:54 17,1 C 16,8 C 89 % 1009,6 hPa 0,0 l/m 0 min 0 min 0,7 UV-I 239 W/m 20,6 km/h (4 Bft)
21.06.2013 09:56 17,2 C 16,8 C 89 % 1009,6 hPa 0,0 l/m 0 min 0 min 0,7 UV-I 223 W/m 18,0 km/h (3 Bft)
21.06.2013 09:58 17,2 C 16,8 C 89 % 1009,6 hPa 0,0 l/m 0 min 0 min 0,8 UV-I 281 W/m 10,3 km/h (2 Bft)
21.06.2013 10:00 17,2 C 17,3 C 89 % 1009,7 hPa 0,0 l/m 0 min 0 min 1,2 UV-I 281 W/m 18,0 km/h (3 Bft)
21.06.2013 10:02 17,3 C 18,4 C 88 % 1009,9 hPa 0,0 l/m 2 min 0 min 2,0 UV-I 357 W/m 18,0 km/h (3 Bft)
21.06.2013 10:06 17,4 C 18,4 C 88 % 1009,9 hPa 0,0 l/m 2 min 0 min 0,9 UV-I 543 W/m 18,0 km/h (3 Bft)
21.06.2013 10:08 17,4 C 18,4 C 88 % 1009,8 hPa 0,0 l/m 2 min 0 min 1,1 UV-I 374 W/m 12,9 km/h (3 Bft)
21.06.2013 10:10 17,6 C 19,6 C 88 % 1009,9 hPa 0,0 l/m 2 min 0 min 1,9 UV-I 374 W/m 28,3 km/h (4 Bft)
21.06.2013 10:12 17,7 C 21,2 C 88 % 1009,9 hPa 0,0 l/m 2 min 0 min 2,3 UV-I 891 W/m 12,9 km/h (3 Bft)
21.06.2013 10:14 17,9 C 21,8 C 88 % 1010,0 hPa 0,0 l/m 2 min 0 min 1,4 UV-I 598 W/m 10,3 km/h (2 Bft)
21.06.2013 10:16 18,0 C 21,2 C 88 % 1010,1 hPa 0,0 l/m 2 min 0 min 2,3 UV-I 870 W/m 33,5 km/h (5 Bft)
21.06.2013 10:18 18,1 C 21,2 C 87 % 1010,0 hPa 0,0 l/m 2 min 0 min 1,2 UV-I 916 W/m 20,6 km/h (4 Bft)
21.06.2013 10:20 18,2 C 20,1 C 86 % 1010,0 hPa 0,0 l/m 2 min 0 min 1,2 UV-I 387 W/m 18,0 km/h (3 Bft)
21.06.2013 10:22 18,3 C 20,7 C 86 % 1010,0 hPa 0,0 l/m 2 min 0 min 1,0 UV-I 527 W/m 12,9 km/h (3 Bft)
21.06.2013 10:24 18,4 C 19,6 C 85 % 1010,1 hPa 0,0 l/m 0 min 0 min 1,0 UV-I 327 W/m 20,6 km/h (4 Bft)
21.06.2013 10:26 18,4 C 19,6 C 85 % 1010,1 hPa 0,0 l/m 2 min 0 min 1,1 UV-I 401 W/m 12,9 km/h (3 Bft)
21.06.2013 10:28 18,3 C 18,4 C 84 % 1010,0 hPa 0,0 l/m 0 min 0 min 1,0 UV-I 332 W/m 23,2 km/h (4 Bft)
21.06.2013 10:30 18,2 C 18,4 C 85 % 1010,0 hPa 0,0 l/m 0 min 0 min 0,9 UV-I 311 W/m 20,6 km/h (4 Bft)
21.06.2013 10:32 18,1 C 17,9 C 85 % 1010,2 hPa 0,0 l/m 0 min 0 min 1,0 UV-I 315 W/m 28,3 km/h (4 Bft)
21.06.2013 10:34 18,0 C 17,9 C 85 % 1010,1 hPa 0,0 l/m 0 min 0 min 1,1 UV-I 330 W/m 12,9 km/h (3 Bft)
21.06.2013 10:36 17,9 C 17,9 C 85 % 1010,1 hPa 0,0 l/m 0 min 0 min 1,2 UV-I 350 W/m 5,1 km/h (1 Bft)
21.06.2013 10:38 18,0 C 18,4 C 86 % 1010,3 hPa 0,0 l/m 2 min 0 min 2,6 UV-I 483 W/m 20,6 km/h (4 Bft)
21.06.2013 10:40 18,1 C 19,0 C 86 % 1010,1 hPa 0,0 l/m 2 min 0 min 1,4 UV-I 403 W/m 7,7 km/h (2 Bft)
21.06.2013 10:42 18,2 C 19,0 C 85 % 1010,2 hPa 0,0 l/m 0 min 0 min 0,8 UV-I 299 W/m 18,0 km/h (3 Bft)
21.06.2013 10:44 18,2 C 18,4 C 85 % 1010,3 hPa 0,0 l/m 0 min 0 min 0,0 UV-I 216 W/m 20,6 km/h (4 Bft)
21.06.2013 10:46 18,2 C 17,9 C 85 % 1010,2 hPa 0,0 l/m 0 min 0 min 0,0 UV-I 200 W/m 10,3 km/h (2 Bft)
21.06.2013 10:48 18,1 C 17,9 C 85 % 1010,4 hPa 0,0 l/m 0 min 0 min 0,0 UV-I 202 W/m 12,9 km/h (3 Bft)
21.06.2013 10:50 17,9 C 17,3 C 85 % 1010,3 hPa 0,0 l/m 0 min 0 min 0,0 UV-I 207 W/m 15,4 km/h (3 Bft)
21.06.2013 10:52 17,8 C 17,3 C 85 % 1010,4 hPa 0,0 l/m 0 min 0 min 0,6 UV-I 227 W/m 18,0 km/h (3 Bft)
21.06.2013 10:54 17,7 C 17,3 C 86 % 1010,4 hPa 0,0 l/m 0 min 0 min 0,7 UV-I 243 W/m 10,3 km/h (2 Bft)
21.06.2013 10:56 17,7 C 17,3 C 86 % 1010,6 hPa 0,0 l/m 0 min 0 min 0,7 UV-I 241 W/m 18,0 km/h (3 Bft)
21.06.2013 10:58 17,7 C 17,3 C 86 % 1010,4 hPa 0,0 l/m 0 min 0 min 0,8 UV-I 274 W/m 15,4 km/h (3 Bft)
21.06.2013 11:00 17,7 C 17,9 C 87 % 1010,5 hPa 0,0 l/m 0 min 0 min 1,0 UV-I 292 W/m 15,4 km/h (3 Bft)
21.06.2013 11:02 17,8 C 17,9 C 87 % 1010,4 hPa 0,0 l/m 0 min 0 min 0,9 UV-I 297 W/m 20,6 km/h (4 Bft)
21.06.2013 11:06 17,8 C 17,9 C 86 % 1010,6 hPa 0,0 l/m 0 min 0 min 1,2 UV-I 329 W/m 23,2 km/h (4 Bft)
21.06.2013 11:08 17,8 C 17,9 C 86 % 1010,5 hPa 0,0 l/m 0 min 0 min 1,4 UV-I 371 W/m 18,0 km/h (3 Bft)
21.06.2013 11:10 17,9 C 17,9 C 86 % 1010,5 hPa 0,0 l/m 0 min 0 min 1,5 UV-I 404 W/m 7,7 km/h (2 Bft)
21.06.2013 11:12 18,0 C 18,4 C 87 % 1010,6 hPa 0,0 l/m 2 min 0 min 1,6 UV-I 425 W/m 7,7 km/h (2 Bft)
21.06.2013 11:14 18,2 C 19,0 C 86 % 1010,6 hPa 0,0 l/m 2 min 0 min 1,6 UV-I 446 W/m 10,3 km/h (2 Bft)
21.06.2013 11:16 18,3 C 19,0 C 86 % 1010,6 hPa 0,0 l/m 0 min 0 min 1,6 UV-I 406 W/m 7,7 km/h (2 Bft)
21.06.2013 11:18 18,4 C 19,0 C 85 % 1010,6 hPa 0,0 l/m 0 min 0 min 1,3 UV-I 359 W/m 7,7 km/h (2 Bft)
21.06.2013 11:20 18,4 C 19,0 C 85 % 1010,5 hPa 0,0 l/m 0 min 0 min 0,7 UV-I 186 W/m 12,9 km/h (3 Bft)
21.06.2013 11:22 18,4 C 18,4 C 85 % 1010,7 hPa 0,0 l/m 0 min 0 min 0,7 UV-I 221 W/m 12,9 km/h (3 Bft)
21.06.2013 11:24 18,3 C 18,4 C 84 % 1010,7 hPa 0,0 l/m 0 min 0 min 1,1 UV-I 297 W/m 12,9 km/h (3 Bft)
21.06.2013 11:26 18,3 C 18,4 C 85 % 1010,8 hPa 0,0 l/m 0 min 0 min 1,3 UV-I 339 W/m 18,0 km/h (3 Bft)
21.06.2013 11:28 18,2 C 18,4 C 85 % 1010,7 hPa 0,0 l/m 0 min 0 min 1,0 UV-I 290 W/m 12,9 km/h (3 Bft)
21.06.2013 11:30 18,2 C 17,9 C 85 % 1010,7 hPa 0,0 l/m 0 min 2 min 0,8 UV-I 243 W/m 18,0 km/h (3 Bft)
21.06.2013 11:32 18,1 C 17,9 C 85 % 1010,8 hPa 0,0 l/m 0 min 2 min 0,8 UV-I 253 W/m 7,7 km/h (2 Bft)
21.06.2013 11:34 17,9 C 17,9 C 85 % 1010,9 hPa 0,0 l/m 0 min 0 min 0,9 UV-I 265 W/m 12,9 km/h (3 Bft)
21.06.2013 11:36 17,8 C 17,9 C 85 % 1010,9 hPa 0,0 l/m 0 min 0 min 1,0 UV-I 276 W/m 15,4 km/h (3 Bft)
21.06.2013 11:38 17,8 C 17,9 C 86 % 1010,9 hPa 0,0 l/m 0 min 0 min 1,0 UV-I 287 W/m 18,0 km/h (3 Bft)
21.06.2013 11:40 17,8 C 17,9 C 86 % 1010,9 hPa 0,0 l/m 0 min 0 min 1,0 UV-I 278 W/m 10,3 km/h (2 Bft)
21.06.2013 11:42 17,8 C 17,9 C 86 % 1010,9 hPa 0,0 l/m 0 min 0 min 0,7 UV-I 223 W/m 15,4 km/h (3 Bft)
21.06.2013 11:44 17,8 C 17,3 C 86 % 1010,8 hPa 0,0 l/m 0 min 0 min 0,0 UV-I 132 W/m 12,9 km/h (3 Bft)
21.06.2013 11:46 17,8 C 17,3 C 86 % 1011,0 hPa 0,0 l/m 0 min 0 min 0,0 UV-I 149 W/m 15,4 km/h (3 Bft)
21.06.2013 11:48 17,8 C 17,3 C 86 % 1010,9 hPa 0,0 l/m 0 min 0 min 0,0 UV-I 118 W/m 15,4 km/h (3 Bft)
21.06.2013 11:50 17,8 C 16,8 C 86 % 1011,0 hPa 0,0 l/m 0 min 0 min 0,0 UV-I 149 W/m 12,9 km/h (3 Bft)
21.06.2013 11:52 17,8 C 16,8 C 86 % 1011,0 hPa 0,0 l/m 0 min 0 min 0,5 UV-I 176 W/m 12,9 km/h (3 Bft)
21.06.2013 11:54 17,8 C 17,3 C 86 % 1010,9 hPa 0,0 l/m 0 min 0 min 0,8 UV-I 197 W/m 18,0 km/h (3 Bft)
21.06.2013 11:56 17,8 C 17,3 C 86 % 1010,9 hPa 0,0 l/m 0 min 0 min 1,3 UV-I 297 W/m 18,0 km/h (3 Bft)
21.06.2013 11:58 17,8 C 17,9 C 86 % 1010,9 hPa 0,0 l/m 0 min 0 min 1,4 UV-I 320 W/m 15,4 km/h (3 Bft)
21.06.2013 12:00 17,8 C 17,9 C 86 % 1010,9 hPa 0,0 l/m 0 min 0 min 1,5 UV-I 329 W/m 2,6 km/h (1 Bft)
21.06.2013 12:02 17,9 C 18,4 C 86 % 1010,9 hPa 0,0 l/m 0 min 0 min 1,6 UV-I 338 W/m 7,7 km/h (2 Bft)
21.06.2013 12:05 17,9 C 18,4 C 86 % 1011,0 hPa 0,0 l/m 0 min 0 min 1,3 UV-I 294 W/m 15,4 km/h (3 Bft)
21.06.2013 12:06 17,9 C 17,9 C 86 % 1011,0 hPa 0,0 l/m 0 min 0 min 1,3 UV-I 297 W/m 15,4 km/h (3 Bft)
21.06.2013 12:08 17,8 C 17,9 C 85 % 1010,9 hPa 0,0 l/m 0 min 0 min 1,3 UV-I 297 W/m 18,0 km/h (3 Bft)
21.06.2013 12:10 17,9 C 17,9 C 86 % 1011,0 hPa 0,0 l/m 0 min 0 min 1,1 UV-I 279 W/m 12,9 km/h (3 Bft)
21.06.2013 12:12 17,9 C 17,9 C 86 % 1011,0 hPa 0,0 l/m 0 min 0 min 1,1 UV-I 265 W/m 15,4 km/h (3 Bft)
21.06.2013 12:14 17,9 C 17,9 C 86 % 1011,0 hPa 0,0 l/m 0 min 0 min 1,2 UV-I 283 W/m 10,3 km/h (2 Bft)
21.06.2013 12:16 17,9 C 17,9 C 86 % 1011,0 hPa 0,0 l/m 0 min 0 min 1,4 UV-I 315 W/m 20,6 km/h (4 Bft)
21.06.2013 12:18 17,9 C 17,9 C 86 % 1010,9 hPa 0,0 l/m 0 min 0 min 1,4 UV-I 316 W/m 12,9 km/h (3 Bft)
21.06.2013 12:20 17,9 C 18,4 C 86 % 1010,9 hPa 0,0 l/m 0 min 0 min 1,5 UV-I 330 W/m 7,7 km/h (2 Bft)
21.06.2013 12:22 18,1 C 18,4 C 86 % 1010,9 hPa 0,0 l/m 0 min 0 min 1,7 UV-I 360 W/m 5,1 km/h (1 Bft)
21.06.2013 12:24 18,1 C 18,4 C 86 % 1011,0 hPa 0,0 l/m 0 min 0 min 1,7 UV-I 359 W/m 12,9 km/h (3 Bft)
21.06.2013 12:26 18,2 C 19,0 C 86 % 1010,9 hPa 0,0 l/m 0 min 0 min 1,6 UV-I 341 W/m 2,6 km/h (1 Bft)
21.06.2013 12:28 18,4 C 19,0 C 86 % 1011,1 hPa 0,0 l/m 0 min 0 min 1,9 UV-I 383 W/m 23,2 km/h (4 Bft)
21.06.2013 12:30 18,4 C 19,0 C 85 % 1011,0 hPa 0,0 l/m 0 min 0 min 1,9 UV-I 380 W/m 15,4 km/h (3 Bft)
21.06.2013 12:32 18,4 C 19,0 C 84 % 1011,1 hPa 0,0 l/m 0 min 0 min 1,8 UV-I 359 W/m 18,0 km/h (3 Bft)
21.06.2013 12:34 18,3 C 18,4 C 83 % 1011,1 hPa 0,0 l/m 0 min 0 min 2,2 UV-I 418 W/m 18,0 km/h (3 Bft)
21.06.2013 12:36 18,3 C 18,4 C 84 % 1011,1 hPa 0,0 l/m 0 min 0 min 2,1 UV-I 406 W/m 12,9 km/h (3 Bft)
21.06.2013 12:38 18,3 C 19,0 C 84 % 1011,1 hPa 0,0 l/m 0 min 0 min 2,0 UV-I 406 W/m 20,6 km/h (4 Bft)
21.06.2013 12:40 18,5 C 19,0 C 85 % 1011,2 hPa 0,0 l/m 0 min 0 min 1,9 UV-I 381 W/m 18,0 km/h (3 Bft)
21.06.2013 12:42 18,5 C 19,0 C 84 % 1011,1 hPa 0,0 l/m 0 min 0 min 1,8 UV-I 359 W/m 12,9 km/h (3 Bft)
21.06.2013 12:44 18,5 C 19,0 C 84 % 1011,1 hPa 0,0 l/m 0 min 0 min 2,0 UV-I 371 W/m 23,2 km/h (4 Bft)
21.06.2013 12:46 18,4 C 19,0 C 83 % 1011,2 hPa 0,0 l/m 0 min 0 min 2,0 UV-I 385 W/m 20,6 km/h (4 Bft)
21.06.2013 12:48 18,4 C 19,0 C 84 % 1011,2 hPa 0,0 l/m 0 min 0 min 2,3 UV-I 459 W/m 15,4 km/h (3 Bft)
21.06.2013 12:50 18,6 C 19,0 C 85 % 1011,3 hPa 0,0 l/m 0 min 0 min 2,5 UV-I 436 W/m 15,4 km/h (3 Bft)
21.06.2013 12:52 18,7 C 19,6 C 84 % 1011,3 hPa 0,0 l/m 0 min 0 min 2,6 UV-I 434 W/m 5,1 km/h (1 Bft)
21.06.2013 12:54 18,7 C 19,6 C 84 % 1011,2 hPa 0,0 l/m 0 min 0 min 2,6 UV-I 415 W/m 23,2 km/h (4 Bft)
21.06.2013 12:56 18,7 C 19,6 C 84 % 1011,2 hPa 0,0 l/m 0 min 0 min 2,5 UV-I 425 W/m 25,7 km/h (4 Bft)
21.06.2013 12:58 18,7 C 19,0 C 84 % 1011,3 hPa 0,0 l/m 0 min 0 min 2,0 UV-I 334 W/m 18,0 km/h (3 Bft)
21.06.2013 13:00 18,6 C 19,0 C 84 % 1011,3 hPa 0,0 l/m 0 min 0 min 1,6 UV-I 301 W/m 10,3 km/h (2 Bft)
21.06.2013 13:02 18,6 C 19,0 C 85 % 1011,4 hPa 0,0 l/m 0 min 0 min 2,2 UV-I 427 W/m 5,1 km/h (1 Bft)
21.06.2013 13:06 18,7 C 19,6 C 84 % 1011,3 hPa 0,0 l/m 0 min 0 min 2,4 UV-I 413 W/m 10,3 km/h (2 Bft)
21.06.2013 13:08 18,7 C 19,6 C 85 % 1011,3 hPa 0,0 l/m 0 min 0 min 2,0 UV-I 329 W/m 15,4 km/h (3 Bft)
21.06.2013 13:10 18,7 C 19,0 C 85 % 1011,4 hPa 0,0 l/m 0 min 0 min 1,9 UV-I 288 W/m 7,7 km/h (2 Bft)
21.06.2013 13:12 18,7 C 19,0 C 85 % 1011,3 hPa 0,0 l/m 0 min 0 min 1,9 UV-I 309 W/m 12,9 km/h (3 Bft)
21.06.2013 13:14 18,7 C 19,6 C 85 % 1011,3 hPa 0,0 l/m 0 min 0 min 2,0 UV-I 330 W/m 5,1 km/h (1 Bft)
21.06.2013 13:16 18,8 C 19,6 C 85 % 1011,3 hPa 0,0 l/m 0 min 0 min 2,1 UV-I 364 W/m 7,7 km/h (2 Bft)
21.06.2013 13:18 18,8 C 19,6 C 84 % 1011,3 hPa 0,0 l/m 0 min 0 min 2,3 UV-I 385 W/m 10,3 km/h (2 Bft)
21.06.2013 13:20 18,8 C 20,1 C 84 % 1011,4 hPa 0,0 l/m 2 min 0 min 2,7 UV-I 506 W/m 5,1 km/h (1 Bft)
21.06.2013 13:22 19,0 C 21,2 C 85 % 1011,4 hPa 0,0 l/m 2 min 0 min 2,8 UV-I 506 W/m 7,7 km/h (2 Bft)
21.06.2013 13:24 19,2 C 21,8 C 84 % 1011,4 hPa 0,0 l/m 2 min 0 min 2,7 UV-I 584 W/m 2,6 km/h (1 Bft)
21.06.2013 13:26 19,4 C 21,2 C 85 % 1011,3 hPa 0,0 l/m 0 min 0 min 2,4 UV-I 462 W/m 12,9 km/h (3 Bft)
21.06.2013 13:28 19,5 C 20,7 C 85 % 1011,3 hPa 0,0 l/m 0 min 2 min 2,1 UV-I 385 W/m 2,6 km/h (1 Bft)
21.06.2013 13:30 19,3 C 19,0 C 84 % 1011,3 hPa 0,0 l/m 0 min 2 min 1,7 UV-I 336 W/m 20,6 km/h (4 Bft)
21.06.2013 13:32 19,1 C 18,4 C 85 % 1011,4 hPa 0,0 l/m 0 min 2 min 1,3 UV-I 279 W/m 12,9 km/h (3 Bft)
21.06.2013 13:34 18,9 C 17,9 C 85 % 1011,4 hPa 0,0 l/m 0 min 2 min 1,1 UV-I 239 W/m 0,0 km/h (0 Bft)
21.06.2013 13:36 18,7 C 17,3 C 86 % 1011,4 hPa 0,0 l/m 0 min 2 min 0,9 UV-I 202 W/m 7,7 km/h (2 Bft)
21.06.2013 13:38 18,6 C 17,3 C 87 % 1011,5 hPa 0,0 l/m 0 min 2 min 1,0 UV-I 209 W/m 15,4 km/h (3 Bft)
21.06.2013 13:40 18,4 C 17,3 C 88 % 1011,4 hPa 0,0 l/m 0 min 2 min 0,9 UV-I 190 W/m 10,3 km/h (2 Bft)
21.06.2013 13:42 18,3 C 17,3 C 88 % 1011,5 hPa 0,0 l/m 0 min 2 min 0,6 UV-I 158 W/m 7,7 km/h (2 Bft)
21.06.2013 13:44 18,3 C 17,3 C 88 % 1011,5 hPa 0,0 l/m 0 min 2 min 0,0 UV-I 135 W/m 2,6 km/h (1 Bft)
21.06.2013 13:46 18,3 C 16,8 C 88 % 1011,6 hPa 0,0 l/m 0 min 0 min 0,0 UV-I 102 W/m 2,6 km/h (1 Bft)
21.06.2013 13:48 18,3 C 16,8 C 88 % 1011,6 hPa 0,0 l/m 0 min 2 min 0,0 UV-I 100 W/m 7,7 km/h (2 Bft)
21.06.2013 13:50 18,3 C 16,8 C 88 % 1011,7 hPa 0,0 l/m 0 min 2 min 0,0 UV-I 127 W/m 10,3 km/h (2 Bft)
21.06.2013 13:52 18,3 C 16,2 C 88 % 1011,7 hPa 0,0 l/m 0 min 2 min 0,5 UV-I 158 W/m 5,1 km/h (1 Bft)
21.06.2013 13:54 18,3 C 16,2 C 89 % 1011,6 hPa 0,2 l/m 0 min 2 min 0,6 UV-I 163 W/m 12,9 km/h (3 Bft)
21.06.2013 13:56 18,3 C 16,2 C 89 % 1011,6 hPa 0,0 l/m 0 min 2 min 0,7 UV-I 179 W/m 7,7 km/h (2 Bft)
21.06.2013 13:58 18,2 C 15,7 C 89 % 1011,7 hPa 0,0 l/m 0 min 2 min 0,7 UV-I 200 W/m 7,7 km/h (2 Bft)
21.06.2013 14:00 18,2 C 16,2 C 89 % 1011,6 hPa 0,0 l/m 0 min 2 min 0,8 UV-I 213 W/m 5,1 km/h (1 Bft)
21.06.2013 14:02 18,2 C 16,2 C 90 % 1011,6 hPa 0,0 l/m 0 min 0 min 1,2 UV-I 258 W/m 0,0 km/h (0 Bft)
21.06.2013 14:06 18,0 C 17,3 C 91 % 1011,6 hPa 0,0 l/m 2 min 2 min 2,7 UV-I 520 W/m 10,3 km/h (2 Bft)
21.06.2013 14:08 17,9 C 17,3 C 92 % 1011,5 hPa 0,0 l/m 2 min 2 min 3,2 UV-I 520 W/m 10,3 km/h (2 Bft)
21.06.2013 14:10 17,9 C 17,3 C 92 % 1011,5 hPa 0,0 l/m 0 min 2 min 2,4 UV-I 469 W/m 5,1 km/h (1 Bft)
21.06.2013 14:12 18,1 C 17,9 C 92 % 1011,5 hPa 0,0 l/m 0 min 0 min 2,6 UV-I 427 W/m 5,1 km/h (1 Bft)
21.06.2013 14:14 18,2 C 17,9 C 93 % 1011,5 hPa 0,0 l/m 2 min 2 min 2,7 UV-I 485 W/m 7,7 km/h (2 Bft)
21.06.2013 14:16 18,2 C 17,9 C 92 % 1011,5 hPa 0,0 l/m 2 min 0 min 3,6 UV-I 698 W/m 15,4 km/h (3 Bft)
21.06.2013 14:18 18,3 C 17,9 C 92 % 1011,5 hPa 0,0 l/m 2 min 2 min 3,4 UV-I 529 W/m 10,3 km/h (2 Bft)
21.06.2013 14:20 18,4 C 18,4 C 92 % 1011,4 hPa 0,0 l/m 2 min 0 min 5,4 UV-I 529 W/m 12,9 km/h (3 Bft)
21.06.2013 14:22 18,6 C 18,4 C 91 % 1011,5 hPa 0,0 l/m 2 min 0 min 3,1 UV-I 656 W/m 10,3 km/h (2 Bft)
21.06.2013 14:24 18,8 C 19,0 C 91 % 1011,5 hPa 0,0 l/m 2 min 0 min 5,2 UV-I 656 W/m 12,9 km/h (3 Bft)
21.06.2013 14:26 19,3 C 19,6 C 92 % 1011,4 hPa 0,0 l/m 2 min 0 min 4,9 UV-I 1042 W/m 10,3 km/h (2 Bft)
21.06.2013 14:28 19,7 C 19,6 C 92 % 1011,5 hPa 0,0 l/m 2 min 0 min 4,1 UV-I 1042 W/m 10,3 km/h (2 Bft)
21.06.2013 14:30 19,8 C 19,6 C 90 % 1011,6 hPa 0,0 l/m 2 min 0 min 3,8 UV-I 663 W/m 10,3 km/h (2 Bft)
21.06.2013 14:32 19,8 C 19,6 C 88 % 1011,6 hPa 0,0 l/m 2 min 0 min 4,9 UV-I 969 W/m 18,0 km/h (3 Bft)
21.06.2013 14:34 19,9 C 19,0 C 88 % 1011,5 hPa 0,0 l/m 2 min 0 min 4,8 UV-I 912 W/m 10,3 km/h (2 Bft)
21.06.2013 14:36 20,1 C 19,0 C 88 % 1011,6 hPa 0,0 l/m 2 min 0 min 4,7 UV-I 902 W/m 15,4 km/h (3 Bft)
21.06.2013 14:38 20,2 C 19,6 C 87 % 1011,5 hPa 0,0 l/m 2 min 0 min 4,8 UV-I 865 W/m 18,0 km/h (3 Bft)
21.06.2013 14:40 20,2 C 19,6 C 85 % 1011,5 hPa 0,0 l/m 2 min 0 min 5,0 UV-I 988 W/m 12,9 km/h (3 Bft)
21.06.2013 14:42 20,4 C 20,1 C 85 % 1011,6 hPa 0,0 l/m 2 min 0 min 3,6 UV-I 1085 W/m 15,4 km/h (3 Bft)
21.06.2013 14:44 20,6 C 20,1 C 83 % 1011,6 hPa 0,0 l/m 2 min 0 min 2,5 UV-I 1085 W/m 15,4 km/h (3 Bft)
21.06.2013 14:46 20,4 C 19,6 C 82 % 1011,5 hPa 0,0 l/m 0 min 0 min 3,2 UV-I 383 W/m 20,6 km/h (4 Bft)
21.06.2013 14:48 20,3 C 19,6 C 82 % 1011,5 hPa 0,0 l/m 2 min 0 min 2,9 UV-I 524 W/m 15,4 km/h (3 Bft)
21.06.2013 14:50 20,2 C 19,6 C 82 % 1011,7 hPa 0,0 l/m 0 min 0 min 2,2 UV-I 439 W/m 18,0 km/h (3 Bft)
21.06.2013 14:52 20,1 C 19,0 C 81 % 1011,6 hPa 0,0 l/m 2 min 0 min 2,5 UV-I 506 W/m 23,2 km/h (4 Bft)
21.06.2013 14:54 20,1 C 19,6 C 83 % 1011,7 hPa 0,0 l/m 2 min 0 min 2,4 UV-I 485 W/m 12,9 km/h (3 Bft)
21.06.2013 14:56 19,9 C 19,0 C 82 % 1011,6 hPa 0,0 l/m 2 min 0 min 2,1 UV-I 497 W/m 33,5 km/h (5 Bft)
21.06.2013 14:58 19,9 C 20,1 C 83 % 1011,7 hPa 0,0 l/m 2 min 0 min 2,1 UV-I 559 W/m 10,3 km/h (2 Bft)
21.06.2013 15:00 20,1 C 20,1 C 84 % 1011,8 hPa 0,0 l/m 0 min 0 min 1,3 UV-I 299 W/m 12,9 km/h (3 Bft)
21.06.2013 15:02 19,9 C 20,1 C 83 % 1011,8 hPa 0,0 l/m 0 min 0 min 1,4 UV-I 302 W/m 23,2 km/h (4 Bft)
21.06.2013 15:05 20,0 C 20,7 C 85 % 1011,8 hPa 0,0 l/m 0 min 0 min 5,1 UV-I 431 W/m 18,0 km/h (3 Bft)
21.06.2013 15:06 20,1 C 21,2 C 84 % 1011,8 hPa 0,0 l/m 1 min 0 min 5,0 UV-I 1002 W/m 5,1 km/h (1 Bft)
21.06.2013 15:08 20,4 C 21,2 C 83 % 1011,7 hPa 0,0 l/m 2 min 0 min 3,7 UV-I 963 W/m 15,4 km/h (3 Bft)
21.06.2013 15:10 20,7 C 21,8 C 83 % 1011,8 hPa 0,0 l/m 2 min 0 min 4,8 UV-I 986 W/m 18,0 km/h (3 Bft)
21.06.2013 15:12 20,8 C 21,2 C 80 % 1011,8 hPa 0,0 l/m 2 min 0 min 4,3 UV-I 986 W/m 12,9 km/h (3 Bft)
21.06.2013 15:14 20,7 C 21,8 C 80 % 1011,6 hPa 0,0 l/m 2 min 0 min 5,2 UV-I 986 W/m 15,4 km/h (3 Bft)
21.06.2013 15:16 20,8 C 21,8 C 80 % 1011,5 hPa 0,0 l/m 2 min 0 min 4,9 UV-I 1005 W/m 25,7 km/h (4 Bft)
21.06.2013 15:18 21,2 C 22,3 C 81 % 1011,5 hPa 0,0 l/m 2 min 0 min 5,0 UV-I 1004 W/m 12,9 km/h (3 Bft)
21.06.2013 15:20 21,6 C 22,9 C 81 % 1011,6 hPa 0,0 l/m 2 min 0 min 3,0 UV-I 1032 W/m 18,0 km/h (3 Bft)
21.06.2013 15:22 21,8 C 22,9 C 79 % 1011,6 hPa 0,0 l/m 2 min 0 min 2,1 UV-I 1055 W/m 15,4 km/h (3 Bft)
21.06.2013 15:24 21,7 C 22,3 C 79 % 1011,5 hPa 0,0 l/m 0 min 0 min 1,8 UV-I 313 W/m 25,7 km/h (4 Bft)
21.06.2013 15:26 21,4 C 22,3 C 80 % 1011,5 hPa 0,0 l/m 0 min 0 min 1,8 UV-I 339 W/m 10,3 km/h (2 Bft)
21.06.2013 15:28 21,1 C 21,2 C 78 % 1011,7 hPa 0,0 l/m 2 min 0 min 2,0 UV-I 531 W/m 23,2 km/h (4 Bft)
21.06.2013 15:30 20,8 C 21,2 C 80 % 1011,6 hPa 0,0 l/m 2 min 0 min 2,3 UV-I 519 W/m 20,6 km/h (4 Bft)
21.06.2013 15:32 20,6 C 21,2 C 81 % 1011,7 hPa 0,0 l/m 2 min 0 min 4,2 UV-I 613 W/m 20,6 km/h (4 Bft)
21.06.2013 15:34 20,7 C 21,8 C 81 % 1011,6 hPa 0,0 l/m 2 min 0 min 2,4 UV-I 563 W/m 18,0 km/h (3 Bft)
21.06.2013 15:36 20,7 C 21,2 C 81 % 1011,8 hPa 0,0 l/m 0 min 0 min 2,2 UV-I 401 W/m 18,0 km/h (3 Bft)
21.06.2013 15:38 20,7 C 21,2 C 81 % 1011,6 hPa 0,0 l/m 0 min 0 min 2,3 UV-I 413 W/m 10,3 km/h (2 Bft)
21.06.2013 15:40 20,7 C 21,2 C 81 % 1011,7 hPa 0,0 l/m 2 min 0 min 2,8 UV-I 517 W/m 15,4 km/h (3 Bft)
21.06.2013 15:42 20,6 C 21,2 C 79 % 1012,0 hPa 0,0 l/m 0 min 0 min 2,1 UV-I 373 W/m 20,6 km/h (4 Bft)
21.06.2013 15:44 20,4 C 20,7 C 79 % 1011,8 hPa 0,0 l/m 0 min 0 min 2,1 UV-I 364 W/m 15,4 km/h (3 Bft)
21.06.2013 15:46 20,4 C 20,7 C 79 % 1011,8 hPa 0,0 l/m 0 min 0 min 1,8 UV-I 339 W/m 7,7 km/h (2 Bft)
21.06.2013 15:48 20,3 C 20,7 C 80 % 1011,9 hPa 0,0 l/m 0 min 0 min 2,1 UV-I 403 W/m 12,9 km/h (3 Bft)
21.06.2013 15:50 20,2 C 20,7 C 80 % 1012,0 hPa 0,0 l/m 2 min 0 min 3,0 UV-I 587 W/m 28,3 km/h (4 Bft)
21.06.2013 15:52 20,3 C 21,2 C 80 % 1012,1 hPa 0,0 l/m 2 min 0 min 3,6 UV-I 587 W/m 12,9 km/h (3 Bft)
21.06.2013 15:54 20,6 C 21,2 C 78 % 1012,0 hPa 0,0 l/m 2 min 0 min 2,5 UV-I 587 W/m 20,6 km/h (4 Bft)
21.06.2013 15:56 20,5 C 21,2 C 78 % 1012,1 hPa 0,0 l/m 2 min 0 min 2,3 UV-I 438 W/m 18,0 km/h (3 Bft)
21.06.2013 15:58 20,4 C 20,7 C 78 % 1012,1 hPa 0,0 l/m 0 min 0 min 2,6 UV-I 420 W/m 15,4 km/h (3 Bft)
21.06.2013 16:00 20,5 C 21,2 C 79 % 1012,0 hPa 0,0 l/m 2 min 0 min 4,2 UV-I 436 W/m 12,9 km/h (3 Bft)
21.06.2013 16:02 20,8 C 21,8 C 79 % 1012,1 hPa 0,0 l/m 2 min 0 min 3,9 UV-I 837 W/m 12,9 km/h (3 Bft)
21.06.2013 16:06 20,9 C 21,2 C 78 % 1012,1 hPa 0,0 l/m 2 min 0 min 3,7 UV-I 770 W/m 25,7 km/h (4 Bft)
21.06.2013 16:08 21,1 C 21,2 C 76 % 1012,1 hPa 0,0 l/m 2 min 0 min 3,6 UV-I 742 W/m 18,0 km/h (3 Bft)
21.06.2013 16:10 21,2 C 21,8 C 77 % 1012,1 hPa 0,0 l/m 2 min 0 min 3,5 UV-I 737 W/m 18,0 km/h (3 Bft)
21.06.2013 16:12 21,4 C 21,8 C 78 % 1012,2 hPa 0,0 l/m 2 min 0 min 3,5 UV-I 738 W/m 18,0 km/h (3 Bft)
21.06.2013 16:14 21,7 C 21,8 C 76 % 1012,1 hPa 0,0 l/m 2 min 0 min 3,5 UV-I 751 W/m 23,2 km/h (4 Bft)
21.06.2013 16:16 21,7 C 21,8 C 75 % 1012,1 hPa 0,0 l/m 2 min 0 min 2,8 UV-I 768 W/m 15,4 km/h (3 Bft)
21.06.2013 16:18 21,8 C 21,8 C 76 % 1012,1 hPa 0,0 l/m 2 min 0 min 1,5 UV-I 768 W/m 20,6 km/h (4 Bft)
21.06.2013 16:20 21,6 C 21,2 C 74 % 1012,2 hPa 0,0 l/m 0 min 0 min 0,7 UV-I 104 W/m 15,4 km/h (3 Bft)
21.06.2013 16:22 21,4 C 20,1 C 75 % 1012,1 hPa 0,0 l/m 0 min 0 min 0,0 UV-I 91 W/m 10,3 km/h (2 Bft)
21.06.2013 16:24 21,2 C 20,1 C 76 % 1012,1 hPa 0,0 l/m 0 min 0 min 0,0 UV-I 88 W/m 20,6 km/h (4 Bft)
21.06.2013 16:26 20,9 C 19,6 C 76 % 1012,3 hPa 0,0 l/m 0 min 2 min 0,0 UV-I 91 W/m 20,6 km/h (4 Bft)
21.06.2013 16:28 20,8 C 19,0 C 77 % 1012,2 hPa 0,0 l/m 0 min 0 min 0,0 UV-I 97 W/m 18,0 km/h (3 Bft)
21.06.2013 16:30 20,8 C 19,0 C 77 % 1012,4 hPa 0,0 l/m 0 min 0 min 0,0 UV-I 72 W/m 25,7 km/h (4 Bft)
21.06.2013 16:32 20,7 C 19,0 C 77 % 1012,5 hPa 0,0 l/m 0 min 0 min 0,0 UV-I 76 W/m 18,0 km/h (3 Bft)
21.06.2013 16:34 20,4 C 18,4 C 77 % 1012,5 hPa 0,0 l/m 0 min 0 min 0,0 UV-I 91 W/m 25,7 km/h (4 Bft)
21.06.2013 16:36 20,3 C 17,9 C 77 % 1012,6 hPa 0,0 l/m 0 min 2 min 0,0 UV-I 155 W/m 23,2 km/h (4 Bft)
21.06.2013 16:38 20,2 C 17,9 C 79 % 1012,6 hPa 0,0 l/m 0 min 2 min 0,5 UV-I 185 W/m 12,9 km/h (3 Bft)
21.06.2013 16:40 20,1 C 17,3 C 80 % 1012,7 hPa 0,0 l/m 0 min 2 min 0,0 UV-I 167 W/m 20,6 km/h (4 Bft)
21.06.2013 16:42 19,9 C 16,8 C 81 % 1012,6 hPa 0,0 l/m 0 min 2 min 0,0 UV-I 114 W/m 12,9 km/h (3 Bft)
21.06.2013 16:44 19,8 C 16,2 C 82 % 1012,6 hPa 0,2 l/m 0 min 2 min 0,0 UV-I 95 W/m 18,0 km/h (3 Bft)
21.06.2013 16:46 19,6 C 16,2 C 83 % 1012,7 hPa 0,0 l/m 0 min 2 min 0,0 UV-I 97 W/m 15,4 km/h (3 Bft)
21.06.2013 16:48 19,4 C 16,2 C 84 % 1012,6 hPa 0,0 l/m 0 min 2 min 0,0 UV-I 125 W/m 7,7 km/h (2 Bft)
21.06.2013 16:50 19,3 C 16,2 C 85 % 1012,6 hPa 0,2 l/m 0 min 2 min 0,0 UV-I 135 W/m 10,3 km/h (2 Bft)
21.06.2013 16:52 19,2 C 16,2 C 86 % 1012,7 hPa 0,0 l/m 0 min 2 min 0,0 UV-I 142 W/m 15,4 km/h (3 Bft)
21.06.2013 16:54 19,1 C 16,2 C 86 % 1012,6 hPa 0,0 l/m 0 min 2 min 0,0 UV-I 165 W/m 10,3 km/h (2 Bft)
21.06.2013 16:56 18,9 C 16,2 C 87 % 1012,6 hPa 0,0 l/m 0 min 2 min 0,5 UV-I 206 W/m 15,4 km/h (3 Bft)
21.06.2013 16:58 18,5 C 16,2 C 88 % 1012,7 hPa 0,0 l/m 0 min 2 min 0,9 UV-I 302 W/m 5,1 km/h (1 Bft)
21.06.2013 17:00 18,2 C 16,8 C 89 % 1012,7 hPa 0,0 l/m 0 min 2 min 1,0 UV-I 302 W/m 2,6 km/h (1 Bft)
21.06.2013 17:02 18,1 C 16,8 C 90 % 1012,7 hPa 0,0 l/m 0 min 2 min 0,8 UV-I 290 W/m 18,0 km/h (3 Bft)
21.06.2013 17:05 17,9 C 16,8 C 90 % 1012,7 hPa 0,0 l/m 0 min 2 min 0,6 UV-I 220 W/m 10,3 km/h (2 Bft)
21.06.2013 17:06 17,8 C 16,8 C 90 % 1012,7 hPa 0,0 l/m 0 min 0 min 0,5 UV-I 207 W/m 12,9 km/h (3 Bft)
21.06.2013 17:08 17,9 C 16,8 C 91 % 1012,7 hPa 0,0 l/m 0 min 0 min 0,0 UV-I 192 W/m 0,0 km/h (0 Bft)
21.06.2013 17:10 17,8 C 16,8 C 91 % 1012,7 hPa 0,0 l/m 0 min 0 min 0,0 UV-I 179 W/m 10,3 km/h (2 Bft)
21.06.2013 17:12 17,8 C 16,8 C 92 % 1012,7 hPa 0,0 l/m 0 min 0 min 0,0 UV-I 174 W/m 12,9 km/h (3 Bft)
21.06.2013 17:14 17,8 C 16,8 C 92 % 1012,8 hPa 0,0 l/m 0 min 0 min 0,0 UV-I 174 W/m 10,3 km/h (2 Bft)
21.06.2013 17:16 17,7 C 16,2 C 91 % 1012,7 hPa 0,0 l/m 0 min 2 min 0,0 UV-I 176 W/m 12,9 km/h (3 Bft)
21.06.2013 17:18 17,7 C 16,2 C 91 % 1012,7 hPa 0,0 l/m 0 min 0 min 0,0 UV-I 179 W/m 7,7 km/h (2 Bft)
21.06.2013 17:20 17,8 C 16,8 C 92 % 1012,7 hPa 0,0 l/m 0 min 0 min 0,0 UV-I 190 W/m 10,3 km/h (2 Bft)
21.06.2013 17:22 17,8 C 16,8 C 91 % 1012,7 hPa 0,0 l/m 0 min 0 min 0,0 UV-I 204 W/m 5,1 km/h (1 Bft)
21.06.2013 17:24 17,8 C 16,8 C 91 % 1012,8 hPa 0,0 l/m 0 min 0 min 0,5 UV-I 234 W/m 23,2 km/h (4 Bft)
21.06.2013 17:26 17,9 C 16,8 C 91 % 1012,7 hPa 0,0 l/m 0 min 0 min 0,6 UV-I 250 W/m 10,3 km/h (2 Bft)
21.06.2013 17:28 17,9 C 16,8 C 90 % 1012,9 hPa 0,0 l/m 0 min 0 min 0,7 UV-I 258 W/m 20,6 km/h (4 Bft)
21.06.2013 17:30 18,1 C 16,8 C 90 % 1012,8 hPa 0,0 l/m 0 min 0 min 0,8 UV-I 267 W/m 18,0 km/h (3 Bft)
21.06.2013 17:32 18,2 C 16,8 C 90 % 1012,7 hPa 0,0 l/m 0 min 0 min 0,8 UV-I 271 W/m 12,9 km/h (3 Bft)
21.06.2013 17:34 18,3 C 17,3 C 90 % 1012,8 hPa 0,0 l/m 0 min 0 min 0,8 UV-I 288 W/m 10,3 km/h (2 Bft)
21.06.2013 17:36 18,4 C 17,3 C 90 % 1012,9 hPa 0,0 l/m 0 min 0 min 0,5 UV-I 192 W/m 15,4 km/h (3 Bft)
21.06.2013 17:38 18,5 C 17,3 C 90 % 1012,9 hPa 0,0 l/m 0 min 0 min 0,0 UV-I 153 W/m 5,1 km/h (1 Bft)
21.06.2013 17:40 18,5 C 16,8 C 89 % 1012,9 hPa 0,0 l/m 0 min 0 min 0,0 UV-I 148 W/m 15,4 km/h (3 Bft)
21.06.2013 17:42 18,5 C 16,8 C 89 % 1013,0 hPa 0,0 l/m 0 min 0 min 0,0 UV-I 156 W/m 15,4 km/h (3 Bft)
21.06.2013 17:44 18,5 C 16,8 C 89 % 1013,0 hPa 0,0 l/m 0 min 0 min 0,0 UV-I 146 W/m 10,3 km/h (2 Bft)
21.06.2013 17:46 18,5 C 16,8 C 89 % 1012,9 hPa 0,0 l/m 0 min 0 min 0,0 UV-I 132 W/m 12,9 km/h (3 Bft)
21.06.2013 17:48 18,4 C 16,8 C 88 % 1012,9 hPa 0,0 l/m 0 min 0 min 0,0 UV-I 141 W/m 20,6 km/h (4 Bft)
21.06.2013 17:50 18,4 C 16,8 C 88 % 1013,0 hPa 0,0 l/m 0 min 0 min 0,0 UV-I 148 W/m 5,1 km/h (1 Bft)
21.06.2013 17:52 18,4 C 16,8 C 87 % 1013,0 hPa 0,0 l/m 0 min 0 min 0,0 UV-I 183 W/m 15,4 km/h (3 Bft)
21.06.2013 17:54 18,4 C 16,8 C 86 % 1013,1 hPa 0,0 l/m 0 min 0 min 0,0 UV-I 202 W/m 10,3 km/h (2 Bft)
21.06.2013 17:56 18,4 C 16,8 C 86 % 1013,0 hPa 0,0 l/m 0 min 0 min 0,0 UV-I 213 W/m 5,1 km/h (1 Bft)
21.06.2013 17:58 18,4 C 16,8 C 86 % 1013,0 hPa 0,0 l/m 0 min 0 min 0,0 UV-I 149 W/m 7,7 km/h (2 Bft)
21.06.2013 18:00 18,4 C 16,8 C 86 % 1013,0 hPa 0,0 l/m 0 min 0 min 0,0 UV-I 139 W/m 10,3 km/h (2 Bft)
21.06.2013 18:02 18,4 C 16,8 C 85 % 1013,0 hPa 0,0 l/m 0 min 0 min 0,0 UV-I 176 W/m 10,3 km/h (2 Bft)
21.06.2013 18:06 18,4 C 17,3 C 86 % 1012,9 hPa 0,0 l/m 0 min 0 min 0,0 UV-I 244 W/m 15,4 km/h (3 Bft)
21.06.2013 18:08 18,5 C 17,3 C 85 % 1013,0 hPa 0,0 l/m 0 min 0 min 0,5 UV-I 244 W/m 12,9 km/h (3 Bft)
21.06.2013 18:10 18,6 C 17,3 C 85 % 1012,9 hPa 0,0 l/m 2 min 0 min 0,8 UV-I 304 W/m 7,7 km/h (2 Bft)
21.06.2013 18:12 18,7 C 17,3 C 85 % 1013,0 hPa 0,0 l/m 0 min 0 min 0,6 UV-I 274 W/m 7,7 km/h (2 Bft)
21.06.2013 18:14 18,8 C 17,9 C 84 % 1012,9 hPa 0,0 l/m 0 min 0 min 0,5 UV-I 272 W/m 23,2 km/h (4 Bft)
21.06.2013 18:16 18,9 C 17,9 C 84 % 1012,9 hPa 0,0 l/m 0 min 0 min 0,5 UV-I 271 W/m 12,9 km/h (3 Bft)
21.06.2013 18:18 19,0 C 18,4 C 84 % 1012,9 hPa 0,0 l/m 0 min 0 min 0,0 UV-I 255 W/m 12,9 km/h (3 Bft)
21.06.2013 18:20 18,9 C 18,4 C 83 % 1012,8 hPa 0,0 l/m 0 min 0 min 0,0 UV-I 200 W/m 10,3 km/h (2 Bft)
21.06.2013 18:22 18,9 C 18,4 C 84 % 1012,8 hPa 0,0 l/m 0 min 0 min 0,0 UV-I 163 W/m 5,1 km/h (1 Bft)
21.06.2013 18:24 18,9 C 18,4 C 84 % 1012,8 hPa 0,0 l/m 0 min 0 min 0,0 UV-I 156 W/m 23,2 km/h (4 Bft)
21.06.2013 18:26 18,9 C 18,4 C 83 % 1012,9 hPa 0,0 l/m 0 min 0 min 0,0 UV-I 199 W/m 12,9 km/h (3 Bft)
21.06.2013 18:28 18,9 C 18,4 C 84 % 1012,8 hPa 0,0 l/m 2 min 0 min 0,5 UV-I 330 W/m 5,1 km/h (1 Bft)
21.06.2013 18:30 19,0 C 19,0 C 84 % 1012,7 hPa 0,0 l/m 2 min 0 min 0,8 UV-I 526 W/m 7,7 km/h (2 Bft)
21.06.2013 18:32 19,1 C 19,0 C 83 % 1012,8 hPa 0,0 l/m 2 min 0 min 0,6 UV-I 515 W/m 12,9 km/h (3 Bft)
21.06.2013 18:34 19,2 C 19,0 C 83 % 1012,8 hPa 0,0 l/m 2 min 0 min 0,6 UV-I 464 W/m 10,3 km/h (2 Bft)
21.06.2013 18:36 19,2 C 18,4 C 82 % 1012,7 hPa 0,0 l/m 0 min 0 min 0,0 UV-I 176 W/m 15,4 km/h (3 Bft)
21.06.2013 18:38 19,3 C 18,4 C 82 % 1012,8 hPa 0,0 l/m 2 min 0 min 0,0 UV-I 378 W/m 12,9 km/h (3 Bft)
21.06.2013 18:40 19,4 C 18,4 C 82 % 1012,9 hPa 0,0 l/m 0 min 0 min 0,0 UV-I 141 W/m 10,3 km/h (2 Bft)
21.06.2013 18:42 19,4 C 18,4 C 82 % 1012,8 hPa 0,0 l/m 0 min 0 min 0,0 UV-I 174 W/m 18,0 km/h (3 Bft)
21.06.2013 18:44 19,5 C 18,4 C 82 % 1012,9 hPa 0,0 l/m 0 min 0 min 0,0 UV-I 125 W/m 20,6 km/h (4 Bft)
21.06.2013 18:46 19,5 C 18,4 C 81 % 1013,0 hPa 0,0 l/m 0 min 0 min 0,0 UV-I 221 W/m 28,3 km/h (4 Bft)
21.06.2013 18:48 19,5 C 18,4 C 80 % 1013,1 hPa 0,0 l/m 2 min 0 min 0,0 UV-I 304 W/m 23,2 km/h (4 Bft)
21.06.2013 18:50 19,5 C 18,4 C 80 % 1013,0 hPa 0,0 l/m 0 min 0 min 0,0 UV-I 146 W/m 28,3 km/h (4 Bft)
21.06.2013 18:52 19,5 C 18,4 C 80 % 1013,0 hPa 0,0 l/m 0 min 0 min 0,0 UV-I 193 W/m 10,3 km/h (2 Bft)
21.06.2013 18:54 19,5 C 18,4 C 81 % 1013,0 hPa 0,0 l/m 0 min 0 min 0,0 UV-I 197 W/m 18,0 km/h (3 Bft)
21.06.2013 18:56 19,6 C 19,0 C 81 % 1012,9 hPa 0,0 l/m 0 min 0 min 0,0 UV-I 158 W/m 7,7 km/h (2 Bft)
21.06.2013 18:58 19,6 C 19,0 C 81 % 1013,0 hPa 0,0 l/m 0 min 0 min 0,0 UV-I 95 W/m 10,3 km/h (2 Bft)
21.06.2013 19:00 19,6 C 18,4 C 82 % 1013,2 hPa 0,0 l/m 0 min 0 min 0,0 UV-I 72 W/m 18,0 km/h (3 Bft)
21.06.2013 19:02 19,6 C 18,4 C 82 % 1013,1 hPa 0,0 l/m 0 min 0 min 0,0 UV-I 60 W/m 12,9 km/h (3 Bft)
21.06.2013 19:06 19,4 C 17,9 C 80 % 1013,2 hPa 0,0 l/m 0 min 0 min 0,0 UV-I 70 W/m 20,6 km/h (4 Bft)
21.06.2013 19:08 19,3 C 17,9 C 80 % 1013,2 hPa 0,0 l/m 0 min 0 min 0,0 UV-I 79 W/m 15,4 km/h (3 Bft)
21.06.2013 19:10 19,2 C 17,9 C 80 % 1013,3 hPa 0,0 l/m 0 min 0 min 0,0 UV-I 86 W/m 20,6 km/h (4 Bft)
21.06.2013 19:12 19,2 C 17,9 C 80 % 1013,3 hPa 0,0 l/m 0 min 0 min 0,0 UV-I 91 W/m 10,3 km/h (2 Bft)
21.06.2013 19:14 19,2 C 17,9 C 81 % 1013,3 hPa 0,0 l/m 0 min 0 min 0,0 UV-I 104 W/m 12,9 km/h (3 Bft)
21.06.2013 19:16 19,2 C 17,9 C 81 % 1013,3 hPa 0,0 l/m 0 min 0 min 0,0 UV-I 114 W/m 7,7 km/h (2 Bft)
21.06.2013 19:18 19,1 C 17,9 C 81 % 1013,3 hPa 0,0 l/m 0 min 0 min 0,0 UV-I 125 W/m 20,6 km/h (4 Bft)
21.06.2013 19:20 19,1 C 17,9 C 81 % 1013,3 hPa 0,0 l/m 0 min 0 min 0,0 UV-I 135 W/m 12,9 km/h (3 Bft)
21.06.2013 19:22 19,1 C 17,9 C 81 % 1013,3 hPa 0,0 l/m 0 min 0 min 0,0 UV-I 155 W/m 12,9 km/h (3 Bft)
21.06.2013 19:24 19,0 C 17,9 C 82 % 1013,3 hPa 0,0 l/m 0 min 0 min 0,0 UV-I 160 W/m 7,7 km/h (2 Bft)
21.06.2013 19:26 19,0 C 17,9 C 82 % 1013,3 hPa 0,0 l/m 0 min 0 min 0,0 UV-I 167 W/m 15,4 km/h (3 Bft)
21.06.2013 19:28 19,0 C 18,4 C 82 % 1013,3 hPa 0,0 l/m 0 min 0 min 0,0 UV-I 158 W/m 12,9 km/h (3 Bft)
21.06.2013 19:30 19,0 C 17,9 C 82 % 1013,3 hPa 0,0 l/m 0 min 0 min 0,0 UV-I 149 W/m 25,7 km/h (4 Bft)
21.06.2013 19:32 19,0 C 17,9 C 82 % 1013,4 hPa 0,0 l/m 0 min 0 min 0,0 UV-I 146 W/m 12,9 km/h (3 Bft)
21.06.2013 19:34 19,0 C 17,9 C 82 % 1013,3 hPa 0,0 l/m 0 min 0 min 0,0 UV-I 146 W/m 10,3 km/h (2 Bft)
21.06.2013 19:36 19,0 C 18,4 C 82 % 1013,4 hPa 0,0 l/m 0 min 0 min 0,0 UV-I 142 W/m 12,9 km/h (3 Bft)
21.06.2013 19:38 19,0 C 18,4 C 82 % 1013,5 hPa 0,0 l/m 0 min 0 min 0,0 UV-I 130 W/m 23,2 km/h (4 Bft)
21.06.2013 19:40 19,0 C 18,4 C 82 % 1013,4 hPa 0,0 l/m 0 min 0 min 0,0 UV-I 120 W/m 10,3 km/h (2 Bft)
21.06.2013 19:42 18,9 C 17,9 C 82 % 1013,5 hPa 0,0 l/m 0 min 0 min 0,0 UV-I 104 W/m 15,4 km/h (3 Bft)
21.06.2013 19:44 18,9 C 17,9 C 82 % 1013,5 hPa 0,0 l/m 0 min 0 min 0,0 UV-I 77 W/m 12,9 km/h (3 Bft)
21.06.2013 19:46 19,0 C 17,9 C 82 % 1013,6 hPa 0,0 l/m 0 min 0 min 0,0 UV-I 63 W/m 7,7 km/h (2 Bft)
21.06.2013 19:48 18,9 C 17,9 C 82 % 1013,6 hPa 0,0 l/m 0 min 0 min 0,0 UV-I 63 W/m 10,3 km/h (2 Bft)
21.06.2013 19:50 18,9 C 17,9 C 82 % 1013,6 hPa 0,0 l/m 0 min 0 min 0,0 UV-I 81 W/m 7,7 km/h (2 Bft)
21.06.2013 19:52 18,9 C 17,9 C 82 % 1013,5 hPa 0,0 l/m 0 min 0 min 0,0 UV-I 91 W/m 7,7 km/h (2 Bft)
21.06.2013 19:54 18,9 C 17,9 C 83 % 1013,5 hPa 0,0 l/m 0 min 0 min 0,0 UV-I 95 W/m 10,3 km/h (2 Bft)
21.06.2013 19:56 18,9 C 17,9 C 83 % 1013,5 hPa 0,0 l/m 0 min 0 min 0,0 UV-I 76 W/m 10,3 km/h (2 Bft)
21.06.2013 19:58 18,9 C 17,9 C 82 % 1013,6 hPa 0,0 l/m 0 min 0 min 0,0 UV-I 67 W/m 15,4 km/h (3 Bft)
21.06.2013 20:00 18,8 C 17,3 C 82 % 1013,6 hPa 0,0 l/m 0 min 0 min 0,0 UV-I 46 W/m 5,1 km/h (1 Bft)
21.06.2013 20:02 18,8 C 17,3 C 82 % 1013,7 hPa 0,0 l/m 0 min 0 min 0,0 UV-I 39 W/m 12,9 km/h (3 Bft)
21.06.2013 20:06 18,7 C 17,3 C 81 % 1013,7 hPa 0,0 l/m 0 min 0 min 0,0 UV-I 40 W/m 12,9 km/h (3 Bft)
21.06.2013 20:08 18,6 C 17,3 C 81 % 1013,8 hPa 0,0 l/m 0 min 0 min 0,0 UV-I 42 W/m 23,2 km/h (4 Bft)
21.06.2013 20:10 18,6 C 16,8 C 81 % 1013,8 hPa 0,0 l/m 0 min 0 min 0,0 UV-I 46 W/m 10,3 km/h (2 Bft)
21.06.2013 20:12 18,5 C 16,8 C 81 % 1013,8 hPa 0,0 l/m 0 min 0 min 0,0 UV-I 54 W/m 10,3 km/h (2 Bft)
21.06.2013 20:14 18,4 C 16,8 C 81 % 1013,8 hPa 0,0 l/m 0 min 0 min 0,0 UV-I 63 W/m 15,4 km/h (3 Bft)
21.06.2013 20:16 18,4 C 16,8 C 81 % 1013,8 hPa 0,0 l/m 0 min 0 min 0,0 UV-I 67 W/m 5,1 km/h (1 Bft)
21.06.2013 20:18 18,4 C 17,3 C 81 % 1013,8 hPa 0,0 l/m 0 min 0 min 0,0 UV-I 72 W/m 12,9 km/h (3 Bft)
21.06.2013 20:20 18,4 C 17,3 C 81 % 1013,9 hPa 0,0 l/m 0 min 0 min 0,0 UV-I 88 W/m 2,6 km/h (1 Bft)
21.06.2013 20:22 18,3 C 17,3 C 82 % 1013,9 hPa 0,0 l/m 2 min 0 min 0,0 UV-I 107 W/m 20,6 km/h (4 Bft)
21.06.2013 20:24 18,3 C 17,3 C 81 % 1013,9 hPa 0,0 l/m 2 min 0 min 0,0 UV-I 113 W/m 20,6 km/h (4 Bft)
21.06.2013 20:26 18,3 C 17,3 C 81 % 1013,8 hPa 0,0 l/m 2 min 0 min 0,0 UV-I 104 W/m 12,9 km/h (3 Bft)
21.06.2013 20:28 18,3 C 17,3 C 82 % 1013,8 hPa 0,0 l/m 0 min 0 min 0,0 UV-I 86 W/m 12,9 km/h (3 Bft)
21.06.2013 20:30 18,3 C 17,3 C 82 % 1013,9 hPa 0,0 l/m 0 min 0 min 0,0 UV-I 67 W/m 7,7 km/h (2 Bft)
21.06.2013 20:32 18,3 C 17,3 C 82 % 1013,9 hPa 0,0 l/m 0 min 0 min 0,0 UV-I 60 W/m 2,6 km/h (1 Bft)
21.06.2013 20:34 18,2 C 17,3 C 82 % 1013,9 hPa 0,0 l/m 0 min 0 min 0,0 UV-I 56 W/m 12,9 km/h (3 Bft)
21.06.2013 20:36 18,2 C 16,8 C 82 % 1014,0 hPa 0,0 l/m 0 min 0 min 0,0 UV-I 58 W/m 12,9 km/h (3 Bft)
21.06.2013 20:38 18,2 C 16,8 C 82 % 1014,0 hPa 0,0 l/m 0 min 0 min 0,0 UV-I 63 W/m 5,1 km/h (1 Bft)
21.06.2013 20:40 18,2 C 16,8 C 82 % 1014,0 hPa 0,0 l/m 0 min 0 min 0,0 UV-I 65 W/m 5,1 km/h (1 Bft)
21.06.2013 20:42 18,2 C 16,8 C 82 % 1013,9 hPa 0,0 l/m 0 min 0 min 0,0 UV-I 63 W/m 7,7 km/h (2 Bft)
21.06.2013 20:44 18,2 C 16,8 C 82 % 1014,0 hPa 0,0 l/m 0 min 0 min 0,0 UV-I 60 W/m 12,9 km/h (3 Bft)
21.06.2013 20:46 18,2 C 16,8 C 82 % 1014,0 hPa 0,0 l/m 0 min 0 min 0,0 UV-I 58 W/m 12,9 km/h (3 Bft)
21.06.2013 20:48 18,2 C 16,8 C 83 % 1014,0 hPa 0,0 l/m 0 min 0 min 0,0 UV-I 63 W/m 10,3 km/h (2 Bft)
21.06.2013 20:50 18,1 C 16,8 C 82 % 1014,0 hPa 0,0 l/m 0 min 0 min 0,0 UV-I 63 W/m 10,3 km/h (2 Bft)
21.06.2013 20:52 18,1 C 16,8 C 83 % 1014,1 hPa 0,0 l/m 0 min 0 min 0,0 UV-I 56 W/m 0,0 km/h (0 Bft)
21.06.2013 20:54 18,1 C 16,8 C 83 % 1014,1 hPa 0,0 l/m 0 min 0 min 0,0 UV-I 42 W/m 5,1 km/h (1 Bft)
21.06.2013 20:56 18,1 C 16,8 C 83 % 1014,0 hPa 0,0 l/m 0 min 0 min 0,0 UV-I 35 W/m 2,6 km/h (1 Bft)
21.06.2013 20:58 18,1 C 16,8 C 83 % 1014,1 hPa 0,0 l/m 0 min 0 min 0,0 UV-I 28 W/m 2,6 km/h (1 Bft)
21.06.2013 21:00 18,1 C 16,8 C 83 % 1014,0 hPa 0,0 l/m 0 min 0 min 0,0 UV-I 25 W/m 0,0 km/h (0 Bft)
21.06.2013 21:02 18,1 C 16,8 C 83 % 1014,1 hPa 0,0 l/m 0 min 0 min 0,0 UV-I 28 W/m 15,4 km/h (3 Bft)
21.06.2013 21:06 18,0 C 16,8 C 83 % 1014,1 hPa 0,0 l/m 0 min 0 min 0,0 UV-I 26 W/m 12,9 km/h (3 Bft)
21.06.2013 21:08 17,9 C 16,8 C 83 % 1014,1 hPa 0,0 l/m 0 min 0 min 0,0 UV-I 25 W/m 12,9 km/h (3 Bft)
21.06.2013 21:10 17,9 C 16,8 C 83 % 1014,2 hPa 0,0 l/m 0 min 0 min 0,0 UV-I 26 W/m 7,7 km/h (2 Bft)
21.06.2013 21:12 17,9 C 16,8 C 84 % 1014,2 hPa 0,0 l/m 0 min 0 min 0,0 UV-I 23 W/m 2,6 km/h (1 Bft)
21.06.2013 21:14 17,9 C 16,8 C 84 % 1014,2 hPa 0,0 l/m 0 min 0 min 0,0 UV-I 18 W/m 5,1 km/h (1 Bft)
21.06.2013 21:16 17,9 C 16,8 C 84 % 1014,2 hPa 0,0 l/m 0 min 0 min 0,0 UV-I 12 W/m 7,7 km/h (2 Bft)
21.06.2013 21:18 17,9 C 16,2 C 84 % 1014,3 hPa 0,0 l/m 0 min 0 min 0,0 UV-I 11 W/m 12,9 km/h (3 Bft)
21.06.2013 21:20 17,9 C 16,2 C 84 % 1014,3 hPa 0,0 l/m 0 min 0 min 0,0 UV-I 9 W/m 12,9 km/h (3 Bft)
21.06.2013 21:22 17,9 C 16,2 C 84 % 1014,3 hPa 0,0 l/m 0 min 0 min 0,0 UV-I 9 W/m 12,9 km/h (3 Bft)
21.06.2013 21:24 17,8 C 16,2 C 84 % 1014,4 hPa 0,0 l/m 0 min 0 min 0,0 UV-I 11 W/m 7,7 km/h (2 Bft)
21.06.2013 21:26 17,8 C 16,2 C 84 % 1014,3 hPa 0,0 l/m 0 min 0 min 0,0 UV-I 11 W/m 7,7 km/h (2 Bft)
21.06.2013 21:28 17,8 C 16,2 C 84 % 1014,4 hPa 0,0 l/m 0 min 0 min 0,0 UV-I 11 W/m 5,1 km/h (1 Bft)
21.06.2013 21:30 17,8 C 16,2 C 84 % 1014,4 hPa 0,0 l/m 0 min 0 min 0,0 UV-I 12 W/m 7,7 km/h (2 Bft)
21.06.2013 21:32 17,8 C 16,2 C 85 % 1014,5 hPa 0,0 l/m 0 min 0 min 0,0 UV-I 11 W/m 2,6 km/h (1 Bft)
21.06.2013 21:34 17,8 C 16,2 C 85 % 1014,5 hPa 0,0 l/m 0 min 0 min 0,0 UV-I 9 W/m 0,0 km/h (0 Bft)
21.06.2013 21:36 17,8 C 16,2 C 85 % 1014,5 hPa 0,0 l/m 0 min 0 min 0,0 UV-I 9 W/m 10,3 km/h (2 Bft)
21.06.2013 21:38 17,8 C 16,2 C 85 % 1014,5 hPa 0,0 l/m 0 min 0 min 0,0 UV-I 7 W/m 15,4 km/h (3 Bft)
21.06.2013 21:40 17,7 C 16,2 C 85 % 1014,6 hPa 0,0 l/m 0 min 0 min 0,0 UV-I 5 W/m 10,3 km/h (2 Bft)
21.06.2013 21:42 17,7 C 16,2 C 85 % 1014,6 hPa 0,0 l/m 0 min 0 min 0,0 UV-I 5 W/m 7,7 km/h (2 Bft)
21.06.2013 21:44 17,7 C 16,2 C 85 % 1014,5 hPa 0,0 l/m 0 min 0 min 0,0 UV-I 5 W/m 10,3 km/h (2 Bft)
21.06.2013 21:46 17,7 C 16,2 C 85 % 1014,6 hPa 0,0 l/m 0 min 0 min 0,0 UV-I 5 W/m 5,1 km/h (1 Bft)
21.06.2013 21:48 17,7 C 16,2 C 85 % 1014,6 hPa 0,0 l/m 0 min 0 min 0,0 UV-I 0 W/m 10,3 km/h (2 Bft)
21.06.2013 21:50 17,7 C 16,2 C 85 % 1014,6 hPa 0,0 l/m 0 min 0 min 0,0 UV-I 0 W/m 15,4 km/h (3 Bft)
21.06.2013 21:52 17,6 C 16,2 C 85 % 1014,5 hPa 0,0 l/m 0 min 0 min 0,0 UV-I 0 W/m 7,7 km/h (2 Bft)
21.06.2013 21:54 17,6 C 16,2 C 85 % 1014,6 hPa 0,0 l/m 0 min 0 min 0,0 UV-I 0 W/m 2,6 km/h (1 Bft)
21.06.2013 21:56 17,6 C 15,7 C 85 % 1014,7 hPa 0,0 l/m 0 min 0 min 0,0 UV-I 0 W/m 2,6 km/h (1 Bft)
21.06.2013 21:58 17,5 C 15,7 C 85 % 1014,7 hPa 0,0 l/m 0 min 0 min 0,0 UV-I 0 W/m 10,3 km/h (2 Bft)
21.06.2013 22:00 17,5 C 15,7 C 85 % 1014,7 hPa 0,0 l/m 0 min 0 min 0,0 UV-I 0 W/m 15,4 km/h (3 Bft)
21.06.2013 22:02 17,4 C 15,7 C 85 % 1014,7 hPa 0,0 l/m 0 min 0 min 0,0 UV-I 0 W/m 10,3 km/h (2 Bft)
21.06.2013 22:06 17,4 C 15,7 C 86 % 1014,8 hPa 0,0 l/m 0 min 0 min 0,0 UV-I 0 W/m 10,3 km/h (2 Bft)
21.06.2013 22:08 17,4 C 15,7 C 86 % 1014,8 hPa 0,0 l/m 0 min 0 min 0,0 UV-I 0 W/m 0,0 km/h (0 Bft)
21.06.2013 22:10 17,3 C 15,7 C 86 % 1014,7 hPa 0,0 l/m 0 min 0 min 0,0 UV-I 0 W/m 7,7 km/h (2 Bft)
21.06.2013 22:12 17,3 C 15,7 C 86 % 1014,8 hPa 0,0 l/m 0 min 0 min 0,0 UV-I 0 W/m 12,9 km/h (3 Bft)
21.06.2013 22:14 17,3 C 15,7 C 86 % 1014,7 hPa 0,0 l/m 0 min 0 min 0,0 UV-I 0 W/m 2,6 km/h (1 Bft)
21.06.2013 22:16 17,3 C 15,7 C 86 % 1014,8 hPa 0,0 l/m 0 min 0 min 0,0 UV-I 0 W/m 15,4 km/h (3 Bft)
21.06.2013 22:18 17,2 C 15,7 C 86 % 1014,9 hPa 0,0 l/m 0 min 0 min 0,0 UV-I 0 W/m 2,6 km/h (1 Bft)
21.06.2013 22:20 17,2 C 15,7 C 86 % 1014,9 hPa 0,0 l/m 0 min 0 min 0,0 UV-I 0 W/m 10,3 km/h (2 Bft)
21.06.2013 22:22 17,2 C 15,7 C 86 % 1014,9 hPa 0,0 l/m 0 min 0 min 0,0 UV-I 0 W/m 2,6 km/h (1 Bft)
21.06.2013 22:24 17,2 C 15,7 C 86 % 1014,9 hPa 0,0 l/m 0 min 0 min 0,0 UV-I 0 W/m 2,6 km/h (1 Bft)
21.06.2013 22:26 17,2 C 15,7 C 86 % 1014,9 hPa 0,0 l/m 0 min 0 min 0,0 UV-I 0 W/m 0,0 km/h (0 Bft)
21.06.2013 22:28 17,2 C 15,7 C 86 % 1015,0 hPa 0,0 l/m 0 min 0 min 0,0 UV-I 0 W/m 12,9 km/h (3 Bft)
21.06.2013 22:30 17,2 C 15,7 C 86 % 1014,9 hPa 0,0 l/m 0 min 0 min 0,0 UV-I 0 W/m 7,7 km/h (2 Bft)
21.06.2013 22:32 17,1 C 15,7 C 87 % 1014,9 hPa 0,0 l/m 0 min 0 min 0,0 UV-I 0 W/m 2,6 km/h (1 Bft)
21.06.2013 22:34 17,1 C 15,7 C 87 % 1015,0 hPa 0,0 l/m 0 min 0 min 0,0 UV-I 0 W/m 2,6 km/h (1 Bft)
21.06.2013 22:36 17,1 C 15,7 C 87 % 1015,0 hPa 0,0 l/m 0 min 0 min 0,0 UV-I 0 W/m 2,6 km/h (1 Bft)
21.06.2013 22:38 17,1 C 15,7 C 87 % 1015,0 hPa 0,0 l/m 0 min 0 min 0,0 UV-I 0 W/m 7,7 km/h (2 Bft)
21.06.2013 22:40 17,0 C 15,1 C 87 % 1015,0 hPa 0,0 l/m 0 min 0 min 0,0 UV-I 0 W/m 12,9 km/h (3 Bft)
21.06.2013 22:42 17,0 C 15,1 C 87 % 1015,1 hPa 0,0 l/m 0 min 0 min 0,0 UV-I 0 W/m 10,3 km/h (2 Bft)
21.06.2013 22:44 16,9 C 15,1 C 87 % 1015,0 hPa 0,0 l/m 0 min 0 min 0,0 UV-I 0 W/m 0,0 km/h (0 Bft)
21.06.2013 22:46 16,9 C 15,1 C 87 % 1015,1 hPa 0,0 l/m 0 min 0 min 0,0 UV-I 0 W/m 7,7 km/h (2 Bft)
21.06.2013 22:48 16,9 C 15,1 C 87 % 1015,1 hPa 0,0 l/m 0 min 0 min 0,0 UV-I 0 W/m 10,3 km/h (2 Bft)
21.06.2013 22:50 16,8 C 15,1 C 87 % 1015,2 hPa 0,0 l/m 0 min 0 min 0,0 UV-I 0 W/m 18,0 km/h (3 Bft)
21.06.2013 22:52 16,8 C 15,1 C 87 % 1015,1 hPa 0,0 l/m 0 min 0 min 0,0 UV-I 0 W/m 5,1 km/h (1 Bft)
21.06.2013 22:54 16,8 C 15,1 C 87 % 1015,2 hPa 0,0 l/m 0 min 0 min 0,0 UV-I 0 W/m 7,7 km/h (2 Bft)
21.06.2013 22:56 16,8 C 15,1 C 87 % 1015,2 hPa 0,0 l/m 0 min 0 min 0,0 UV-I 0 W/m 0,0 km/h (0 Bft)
21.06.2013 22:58 16,7 C 15,1 C 87 % 1015,2 hPa 0,0 l/m 0 min 0 min 0,0 UV-I 0 W/m 10,3 km/h (2 Bft)
21.06.2013 23:00 16,7 C 15,1 C 87 % 1015,2 hPa 0,0 l/m 0 min 0 min 0,0 UV-I 0 W/m 12,9 km/h (3 Bft)
21.06.2013 23:02 16,6 C 15,1 C 87 % 1015,3 hPa 0,0 l/m 0 min 0 min 0,0 UV-I 0 W/m 7,7 km/h (2 Bft)
21.06.2013 23:06 16,6 C 15,1 C 87 % 1015,3 hPa 0,0 l/m 0 min 0 min 0,0 UV-I 0 W/m 12,9 km/h (3 Bft)
21.06.2013 23:08 16,5 C 15,1 C 87 % 1015,3 hPa 0,0 l/m 0 min 0 min 0,0 UV-I 0 W/m 2,6 km/h (1 Bft)
21.06.2013 23:10 16,4 C 14,6 C 87 % 1015,3 hPa 0,0 l/m 0 min 0 min 0,0 UV-I 0 W/m 7,7 km/h (2 Bft)
21.06.2013 23:12 16,4 C 14,6 C 86 % 1015,2 hPa 0,0 l/m 0 min 0 min 0,0 UV-I 0 W/m 7,7 km/h (2 Bft)
21.06.2013 23:14 16,4 C 14,6 C 86 % 1015,3 hPa 0,0 l/m 0 min 0 min 0,0 UV-I 0 W/m 2,6 km/h (1 Bft)
21.06.2013 23:16 16,3 C 14,6 C 86 % 1015,3 hPa 0,0 l/m 0 min 0 min 0,0 UV-I 0 W/m 7,7 km/h (2 Bft)
21.06.2013 23:18 16,3 C 14,6 C 86 % 1015,3 hPa 0,0 l/m 0 min 0 min 0,0 UV-I 0 W/m 12,9 km/h (3 Bft)
21.06.2013 23:20 16,3 C 14,6 C 86 % 1015,3 hPa 0,0 l/m 0 min 0 min 0,0 UV-I 0 W/m 5,1 km/h (1 Bft)
21.06.2013 23:22 16,2 C 14,6 C 86 % 1015,2 hPa 0,0 l/m 0 min 0 min 0,0 UV-I 0 W/m 2,6 km/h (1 Bft)
21.06.2013 23:24 16,2 C 14,6 C 86 % 1015,2 hPa 0,0 l/m 0 min 0 min 0,0 UV-I 0 W/m 2,6 km/h (1 Bft)
21.06.2013 23:26 16,2 C 14,6 C 86 % 1015,3 hPa 0,0 l/m 0 min 0 min 0,0 UV-I 0 W/m 5,1 km/h (1 Bft)
21.06.2013 23:28 16,2 C 14,6 C 86 % 1015,2 hPa 0,0 l/m 0 min 0 min 0,0 UV-I 0 W/m 2,6 km/h (1 Bft)
21.06.2013 23:30 16,1 C 14,6 C 86 % 1015,2 hPa 0,0 l/m 0 min 0 min 0,0 UV-I 0 W/m 0,0 km/h (0 Bft)
21.06.2013 23:32 16,1 C 14,6 C 86 % 1015,2 hPa 0,0 l/m 0 min 0 min 0,0 UV-I 0 W/m 0,0 km/h (0 Bft)
21.06.2013 23:34 16,1 C 14,6 C 86 % 1015,3 hPa 0,0 l/m 0 min 0 min 0,0 UV-I 0 W/m 0,0 km/h (0 Bft)
21.06.2013 23:36 16,1 C 14,6 C 86 % 1015,3 hPa 0,0 l/m 0 min 0 min 0,0 UV-I 0 W/m 0,0 km/h (0 Bft)
21.06.2013 23:38 16,1 C 14,6 C 86 % 1015,3 hPa 0,0 l/m 0 min 0 min 0,0 UV-I 0 W/m 0,0 km/h (0 Bft)
21.06.2013 23:40 16,1 C 14,6 C 86 % 1015,4 hPa 0,0 l/m 0 min 0 min 0,0 UV-I 0 W/m 0,0 km/h (0 Bft)
21.06.2013 23:42 16,1 C 14,6 C 86 % 1015,4 hPa 0,0 l/m 0 min 0 min 0,0 UV-I 0 W/m 0,0 km/h (0 Bft)
21.06.2013 23:44 16,0 C 14,6 C 86 % 1015,4 hPa 0,0 l/m 0 min 0 min 0,0 UV-I 0 W/m 7,7 km/h (2 Bft)
21.06.2013 23:46 16,0 C 14,6 C 86 % 1015,4 hPa 0,0 l/m 0 min 0 min 0,0 UV-I 0 W/m 0,0 km/h (0 Bft)
21.06.2013 23:48 15,9 C 14,6 C 86 % 1015,4 hPa 0,0 l/m 0 min 0 min 0,0 UV-I 0 W/m 0,0 km/h (0 Bft)
21.06.2013 23:50 15,9 C 14,6 C 86 % 1015,4 hPa 0,0 l/m 0 min 0 min 0,0 UV-I 0 W/m 0,0 km/h (0 Bft)
21.06.2013 23:52 15,9 C 14,6 C 86 % 1015,4 hPa 0,0 l/m 0 min 0 min 0,0 UV-I 0 W/m 0,0 km/h (0 Bft)
21.06.2013 23:54 15,9 C 14,0 C 86 % 1015,4 hPa 0,0 l/m 0 min 0 min 0,0 UV-I 0 W/m 0,0 km/h (0 Bft)
21.06.2013 23:56 15,9 C 14,0 C 86 % 1015,4 hPa 0,0 l/m 0 min 0 min 0,0 UV-I 0 W/m 0,0 km/h (0 Bft)
21.06.2013 23:58 15,9 C 14,0 C 86 % 1015,4 hPa 0,0 l/m 0 min 0 min 0,0 UV-I 0 W/m 2,6 km/h (1 Bft)
_ Min-Zeit 04:56 03:26 16:20 02:26 - - - - - 00:20
Minimum _ 15,1 C 14,0 C 74 % 1008,0 hPa - - - - - 0,0 km/h (0 Bft)
_ Max-Zeit 15:22 15:20 05:26 23:40 00:24 09:42 00:00 14:20 14:42 10:16
Maximum _ 21,8 C 22,9 C 98 % 1015,4 hPa 0,4 l/m 2 min 2 min 5,4 UV-I 1085 W/m 33,5 km/h
N (5 Bft)
Durchschnitt _ 17,4 C 16,5 C 89 % 1011,2 hPa #6,6 l/m #2:41 h #4:09 h 1,9 UV-I 246 W/m 10,3 km/h (2 Bft)
© 2013 W. Hausmann